Latitude: N 50° 09' 49" Longitude: W 05° 11' 53" Elevation: 168m ASL

There are 12 visitors online

Adverts

<- Previous Day | Today | Next Day ->

All Data for 06 December 2018

Time
A - D
Temp
A - D
Dew Point
A - D
Humidity
A - D
Pressure
A - D
Wind
A - D
Wind Dir Gust
A - D
Rain Rate
A - D
Rain Total
00:00 11.3 11.2 99 1013.8 9.2 SW 14.5 0.0 0.0
00:01 11.3 11.2 99 1013.8 13.6 SW 14.5 0.0 0.0
00:02 11.3 11.2 99 1013.7 10.7 SW 14.5 0.0 0.0
00:03 11.3 11.2 99 1013.8 13.0 NW 14.5 0.0 0.0
00:04 11.3 11.2 99 1013.9 10.7 W 14.5 0.0 0.0
00:05 11.3 11.2 99 1013.9 10.7 SW 14.5 0.0 0.0
00:06 11.3 11.2 99 1014.0 10.7 S 13.6 0.0 0.0
00:08 11.3 11.2 99 1014.0 15.2 SW 15.2 0.0 0.0
00:09 11.3 11.2 99 1014.0 13.6 SW 15.2 0.0 0.0
00:10 11.3 11.2 99 1014.1 11.4 WSW 15.2 0.0 0.0
00:11 11.3 11.2 99 1014.2 11.4 SW 15.2 0.0 0.0
00:12 11.3 11.2 99 1014.1 9.8 SW 15.2 0.0 0.0
00:13 11.3 11.2 99 1014.1 9.8 SW 15.2 0.0 0.0
00:14 11.3 11.2 99 1014.0 10.7 SW 15.2 0.0 0.0
00:15 11.2 11.1 99 1014.0 9.8 SW 15.2 0.0 0.0
00:16 11.2 11.1 99 1014.0 6.9 SW 15.2 0.0 0.0
00:17 11.2 11.1 99 1014.1 13.0 SW 15.2 0.0 0.0
00:18 11.2 11.1 99 1014.0 9.8 S 15.2 0.0 0.0
00:19 11.2 11.1 99 1014.2 11.4 S 13.6 0.0 0.0
00:20 11.2 11.1 99 1014.1 13.6 SW 13.6 0.0 0.0
00:21 11.2 11.1 99 1014.3 13.0 NW 13.6 0.0 0.0
00:22 11.2 11.1 99 1014.3 9.2 S 13.6 0.0 0.0
00:23 11.2 11.1 99 1014.4 7.6 SE 13.6 0.0 0.0
00:24 11.1 11.0 99 1014.3 12.1 SW 13.6 0.0 0.0
00:25 11.1 11.0 99 1014.3 9.8 SW 13.6 0.0 0.0
00:27 11.1 11.0 99 1014.3 13.6 SW 13.6 0.0 0.0
00:28 11.1 11.0 99 1014.5 9.8 SW 13.6 0.0 0.0
00:29 11.1 11.0 99 1014.4 11.4 SW 13.6 0.0 0.0
00:30 11.1 11.0 99 1014.3 8.3 SW 13.6 0.0 0.0
00:31 11.1 11.0 99 1014.4 9.8 SW 13.6 0.0 0.0
00:32 11.1 11.0 99 1014.3 7.6 SW 13.6 0.0 0.0
00:33 11.1 11.0 99 1014.6 10.7 WSW 13.6 0.0 0.0
00:34 11.1 11.0 99 1014.4 11.4 SW 13.6 0.0 0.0
00:35 11.1 11.0 99 1014.4 7.6 NNE 13.6 0.0 0.0
00:36 11.1 11.0 99 1014.5 10.7 NW 13.6 0.0 0.0
00:37 11.1 11.0 99 1014.6 9.8 SW 13.6 0.0 0.0
00:38 11.1 11.0 99 1014.6 12.1 SW 12.1 0.0 0.0
00:39 11.1 11.0 99 1014.5 9.8 NW 12.1 0.0 0.0
00:40 11.1 11.0 99 1014.6 13.0 SW 13.0 0.0 0.0
00:41 11.0 10.9 99 1014.5 10.7 SW 13.0 0.0 0.0
00:42 11.1 11.0 99 1014.6 10.7 SW 13.0 0.0 0.0
00:43 11.1 11.0 99 1014.6 11.4 SW 13.0 0.0 0.0
00:44 11.1 11.0 99 1014.5 9.2 S 13.0 0.0 0.0
00:46 11.2 11.1 99 1014.6 8.3 SW 13.0 0.0 0.0
00:47 11.2 11.1 99 1014.6 8.3 SW 13.0 0.0 0.0
00:48 11.2 11.1 99 1014.8 10.7 S 13.0 0.0 0.0
00:49 11.2 11.1 99 1014.7 9.2 S 13.0 0.0 0.0
00:50 11.2 11.1 99 1014.7 9.2 S 13.0 0.0 0.0
00:51 11.2 11.1 99 1014.8 7.6 SW 13.0 0.0 0.0
00:52 11.1 11.0 99 1014.6 12.1 SW 13.0 0.0 0.0
00:53 11.2 11.1 99 1014.8 9.8 S 13.0 0.0 0.0
00:54 11.2 11.1 99 1014.7 8.3 SW 13.0 0.0 0.0
00:55 11.2 11.1 99 1014.8 8.3 S 12.1 0.0 0.0
00:56 11.2 11.1 99 1014.8 10.7 SW 12.1 0.0 0.0
00:57 11.2 11.1 99 1014.7 7.6 W 12.1 0.0 0.0
00:58 11.2 11.1 99 1014.8 9.8 NW 12.1 0.0 0.0
00:59 11.2 11.1 99 1014.8 10.7 S 12.1 0.0 0.0
01:00 11.2 11.1 99 1014.7 10.7 S 12.1 0.0 0.0
01:01 11.2 11.1 99 1014.7 6.9 SW 12.1 0.0 0.0
01:02 11.2 11.1 99 1014.7 10.7 NW 12.1 0.0 0.0
01:03 11.2 11.1 99 1014.7 10.7 NW 11.4 0.0 0.0
01:04 11.2 11.1 99 1014.6 10.7 NW 11.4 0.0 0.0
01:05 11.2 11.1 99 1014.7 10.7 NW 11.4 0.0 0.0
01:06 11.2 11.1 99 1014.7 10.7 NW 10.7 0.0 0.0
01:07 11.2 11.1 99 1014.7 10.7 SW 10.7 0.0 0.0
01:08 11.3 11.2 99 1014.6 9.2 SW 10.7 0.0 0.0
01:09 11.2 11.1 99 1014.7 9.8 S 10.7 0.0 0.0
01:10 11.2 11.1 99 1014.7 11.4 SW 11.4 0.0 0.0
01:11 11.2 11.1 99 1014.9 11.4 SW 13.0 0.0 0.0
01:12 11.2 11.1 99 1014.8 8.3 SW 13.0 0.0 0.0
01:13 11.2 11.1 99 1014.5 8.3 SE 13.0 0.0 0.0
01:14 11.2 11.1 99 1014.8 9.8 SW 13.0 0.0 0.0
01:15 11.2 11.1 99 1014.6 10.7 SW 13.0 0.0 0.0
01:17 11.2 11.1 99 1014.6 7.6 W 13.0 0.0 0.0
01:18 11.2 11.1 99 1014.7 11.4 SW 13.0 0.0 0.0
01:19 11.2 11.1 99 1014.7 13.0 SW 13.0 0.0 0.1
01:20 11.2 11.1 99 1014.7 12.1 SW 13.0 0.8 0.1
01:21 11.2 11.1 99 1014.7 9.8 SW 13.0 0.8 0.1
01:22 11.2 11.1 99 1014.7 9.8 SW 13.0 0.8 0.1
01:23 11.2 11.1 99 1014.8 12.1 SW 13.0 0.8 0.1
01:24 11.2 11.1 99 1014.6 9.8 S 13.0 0.8 0.1
01:25 11.2 11.1 99 1014.8 7.6 N 13.0 0.0 0.1
01:26 11.2 11.1 99 1014.7 10.7 SW 13.0 0.0 0.1
01:27 11.2 11.1 99 1014.8 8.3 S 13.0 0.0 0.1
01:28 11.1 11.0 99 1014.6 10.7 SW 13.0 0.0 0.1
01:29 11.2 11.1 99 1014.7 10.7 SSW 13.0 0.0 0.1
01:30 11.1 11.0 99 1014.6 8.3 SW 12.1 0.0 0.1
01:31 11.2 11.1 99 1014.5 9.2 SW 12.1 0.0 0.1
01:32 11.1 11.0 99 1014.5 9.8 WSW 13.0 0.0 0.1
01:33 11.1 11.0 99 1014.6 11.4 SW 13.0 0.0 0.1
01:34 11.1 11.0 99 1014.6 9.8 SW 13.0 0.0 0.1
01:36 11.1 11.0 99 1014.5 6.9 SW 13.0 0.0 0.1
01:37 11.1 11.0 99 1014.5 9.8 S 13.0 0.0 0.1
01:38 11.2 11.1 99 1014.3 9.2 S 13.0 0.0 0.1
01:39 11.1 11.0 99 1014.3 9.8 SW 13.0 0.0 0.1
01:40 11.1 11.0 99 1014.3 8.3 SW 13.0 0.0 0.1
01:41 11.1 11.0 99 1014.4 7.6 S 13.0 0.0 0.1
01:42 11.1 11.0 99 1014.5 9.2 SW 13.0 0.0 0.1
01:43 11.1 11.0 99 1014.5 7.6 SE 11.4 0.0 0.1
01:44 11.2 11.1 99 1014.4 8.3 SW 10.7 0.0 0.1
01:45 11.1 11.0 99 1014.4 9.2 SSE 10.7 0.0 0.1
01:46 11.1 11.0 99 1014.3 10.7 SW 10.7 0.0 0.1
01:47 11.1 11.0 99 1014.6 12.1 SE 12.1 0.0 0.1
01:48 11.1 11.0 99 1014.6 12.1 S 12.1 0.0 0.1
01:49 11.1 11.0 99 1014.4 11.4 SW 12.1 0.0 0.1
01:50 11.1 11.0 99 1014.6 13.0 SW 13.0 0.0 0.1
01:51 11.1 11.0 99 1014.6 13.0 S 13.0 0.0 0.1
01:52 11.1 11.0 99 1014.6 11.4 SW 13.0 0.0 0.1
01:53 11.1 11.0 99 1014.5 13.0 W 13.0 0.0 0.1
01:55 11.1 11.0 99 1014.4 12.1 SSW 13.0 0.0 0.1
01:56 11.1 11.0 99 1014.5 9.2 S 13.0 0.0 0.1
01:57 11.1 11.0 99 1014.5 10.7 SW 13.0 0.0 0.1
01:58 11.1 11.0 99 1014.6 9.2 S 13.0 0.0 0.1
01:59 11.0 10.9 99 1014.6 13.0 S 13.0 0.0 0.1
02:00 11.1 11.0 99 1014.5 12.1 SSW 13.0 0.0 0.1
02:01 11.1 11.0 99 1014.6 10.7 S 13.0 0.0 0.1
02:02 11.0 10.9 99 1014.6 7.6 S 13.0 0.0 0.1
02:03 11.0 10.9 99 1014.8 12.1 SSW 13.0 0.0 0.1
02:04 11.1 11.0 99 1014.7 10.7 SW 13.0 0.0 0.1
02:05 11.1 11.0 99 1014.7 12.1 SE 13.0 0.0 0.1
02:06 11.0 10.9 99 1014.9 11.4 SW 16.8 0.0 0.1
02:07 11.0 10.9 99 1014.8 11.4 WNW 16.8 0.0 0.1
02:08 11.0 10.9 99 1014.8 10.7 S 16.8 0.0 0.1
02:09 11.0 10.9 99 1014.6 11.4 SW 16.8 0.0 0.1
02:10 11.0 10.9 99 1014.9 14.5 S 16.8 0.0 0.1
02:11 11.0 10.9 99 1014.7 11.4 SW 16.8 0.0 0.1
02:12 11.0 10.9 99 1015.0 14.5 SW 16.8 0.0 0.1
02:14 11.0 10.9 99 1014.8 12.1 W 16.8 0.0 0.1
02:15 11.0 10.9 99 1014.8 12.1 W 16.8 0.0 0.1
02:16 11.0 10.9 99 1014.8 9.8 NW 16.8 0.0 0.1
02:17 10.9 10.8 99 1014.9 11.4 SW 16.8 0.0 0.1
02:18 10.9 10.8 99 1015.0 12.1 SW 16.8 0.0 0.1
02:19 10.9 10.8 99 1015.0 13.6 SW 16.8 0.0 0.1
02:20 10.9 10.8 99 1014.9 14.5 SW 16.8 0.0 0.1
02:21 10.9 10.8 99 1015.1 9.8 SW 16.8 0.0 0.1
02:22 10.9 10.8 99 1015.3 7.6 SW 16.8 0.0 0.1
02:23 10.9 10.8 99 1015.3 8.3 S 16.8 0.0 0.1
02:24 10.9 10.8 99 1015.4 8.3 SSW 14.5 0.0 0.1
02:25 10.9 10.8 99 1015.1 9.8 NW 14.5 0.0 0.1
02:26 10.9 10.8 99 1015.4 12.1 S 14.5 0.0 0.1
02:27 10.9 10.8 99 1015.3 12.1 SW 14.5 0.0 0.1
02:28 10.9 10.8 99 1015.2 10.7 S 14.5 0.0 0.1
02:29 10.9 10.8 99 1015.4 9.8 S 14.5 0.0 0.1
02:30 10.9 10.8 99 1015.3 10.7 SW 12.1 0.0 0.1
02:31 10.9 10.8 99 1015.3 9.2 SW 12.1 0.0 0.1
02:33 10.9 10.8 99 1015.4 11.4 WSW 12.1 0.0 0.1
02:34 11.0 10.9 99 1015.4 9.8 WSW 12.1 0.0 0.1
02:35 10.9 10.8 99 1015.5 13.6 SSW 13.6 0.0 0.1
02:36 10.9 10.8 99 1015.3 7.6 SW 13.6 0.0 0.1
02:37 10.9 10.8 99 1015.3 7.6 SW 13.6 0.0 0.1
02:38 10.9 10.8 99 1015.4 8.3 S 13.6 0.0 0.1
02:39 10.9 10.8 99 1015.3 8.3 SW 13.6 0.0 0.1
02:40 10.9 10.8 99 1015.2 10.7 S 13.6 0.0 0.1
02:41 10.9 10.8 99 1015.2 10.7 SW 13.6 0.0 0.1
02:42 10.9 10.8 99 1015.2 13.6 SW 13.6 0.0 0.1
02:43 10.9 10.8 99 1015.1 9.2 S 13.6 0.0 0.1
02:44 10.9 10.8 99 1015.1 11.4 S 13.6 0.0 0.1
02:45 10.9 10.8 99 1015.1 12.1 S 13.6 0.0 0.1
02:46 10.9 10.8 99 1015.1 9.8 S 13.6 0.0 0.1
02:47 10.9 10.8 99 1015.2 9.8 S 13.6 0.0 0.1
02:48 10.9 10.8 99 1015.2 9.2 SW 13.6 0.0 0.1
02:49 10.9 10.8 99 1015.2 8.3 S 13.6 0.0 0.1
02:50 10.9 10.8 99 1015.3 8.3 SW 13.6 0.0 0.1
02:52 11.1 11.0 99 1015.2 11.4 SW 12.1 0.0 0.1
02:53 10.9 10.8 99 1015.2 9.8 SW 12.1 0.0 0.1
02:54 10.9 10.8 99 1015.2 9.2 SW 12.1 0.0 0.1
02:55 10.9 10.8 99 1015.2 9.2 SW 11.4 0.0 0.1
02:56 10.9 10.8 99 1015.2 9.2 S 11.4 0.0 0.1
02:57 10.9 10.8 99 1015.0 7.6 SW 11.4 0.0 0.1
02:58 10.9 10.8 99 1015.1 9.8 SW 11.4 0.0 0.1
02:59 10.9 10.8 99 1015.1 10.7 SW 11.4 0.0 0.1
03:00 10.9 10.8 99 1015.1 10.7 SW 11.4 0.0 0.1
03:01 10.9 10.8 99 1015.2 9.8 SW 11.4 0.0 0.1
03:02 10.9 10.8 99 1015.1 8.3 SW 11.4 0.0 0.1
03:03 10.9 10.8 99 1015.1 6.0 S 10.7 0.0 0.1
03:04 10.9 10.8 99 1015.3 9.8 W 10.7 0.0 0.1
03:05 10.9 10.8 99 1015.2 9.2 SW 10.7 0.0 0.1
03:06 10.9 10.8 99 1015.3 12.1 SW 12.1 0.0 0.1
03:07 10.9 10.8 99 1015.3 10.7 S 12.1 0.0 0.1
03:08 10.9 10.8 99 1015.2 12.1 W 12.1 0.0 0.1
03:09 10.9 10.8 99 1015.2 12.1 SW 12.1 0.0 0.1
03:10 10.9 10.8 99 1015.3 9.8 SW 12.1 0.0 0.1
03:11 10.9 10.8 99 1015.2 10.7 SW 12.1 0.0 0.1
03:12 10.9 10.8 99 1015.1 11.4 SW 12.1 0.0 0.1
03:13 10.9 10.8 99 1015.2 13.0 SW 13.0 0.0 0.1
03:15 10.9 10.8 99 1015.2 9.8 S 13.0 0.0 0.1
03:16 10.9 10.8 99 1015.1 12.1 SW 13.0 0.0 0.1
03:17 10.8 10.7 99 1015.1 12.1 SW 13.0 0.0 0.1
03:18 10.9 10.8 99 1015.0 10.7 SW 13.0 0.0 0.1
03:19 10.8 10.7 99 1015.0 11.4 SW 13.0 0.0 0.1
03:20 10.9 10.8 99 1015.1 12.1 SW 13.0 0.0 0.1
03:21 10.8 10.7 99 1015.1 14.5 SW 14.5 0.0 0.1
03:22 10.9 10.8 99 1015.1 15.2 SW 15.2 0.0 0.1
03:23 10.9 10.8 99 1015.3 17.4 SW 17.4 0.8 0.1
03:24 10.8 10.7 99 1015.3 14.5 WSW 17.4 0.8 0.1
03:25 10.8 10.7 99 1015.3 15.2 SW 17.4 0.8 0.1
03:26 10.9 10.8 99 1015.3 14.5 NNW 17.4 0.8 0.1
03:27 10.9 10.8 99 1015.3 10.7 S 17.4 0.8 0.1
03:28 10.9 10.8 99 1015.4 13.6 SW 17.4 0.0 0.1
03:29 10.8 10.7 99 1015.5 12.1 SW 17.4 0.0 0.1
03:30 10.9 10.8 99 1015.6 8.3 W 17.4 0.0 0.1
03:31 10.9 10.8 99 1015.6 12.1 SW 17.4 0.0 0.1
03:32 10.9 10.8 99 1015.3 9.8 SW 17.4 0.0 0.1
03:34 10.9 10.8 99 1015.2 13.6 SW 15.2 0.0 0.1
03:35 10.9 10.8 99 1015.4 12.1 SW 14.5 0.0 0.1
03:36 10.9 10.8 99 1015.4 11.4 SW 13.6 0.0 0.1
03:37 10.9 10.8 99 1015.4 11.4 SW 13.6 0.0 0.1
03:38 10.9 10.8 99 1015.4 12.1 S 13.6 0.0 0.1
03:39 11.1 11.0 99 1015.3 17.4 SW 17.4 0.0 0.1
03:40 10.9 10.8 99 1015.3 14.5 S 17.4 0.0 0.1
03:41 10.9 10.8 99 1015.3 11.4 SW 17.4 0.0 0.1
03:42 10.9 10.8 99 1015.4 12.1 SW 17.4 0.0 0.1
03:43 10.9 10.8 99 1015.3 9.8 SW 17.4 0.0 0.1
03:44 10.9 10.8 99 1015.3 10.7 SW 17.4 0.0 0.1
03:45 10.9 10.8 99 1015.5 9.2 SW 17.4 0.0 0.1
03:46 10.9 10.8 99 1015.3 10.7 S 17.4 0.0 0.1
03:47 10.9 10.8 99 1015.4 9.2 SW 17.4 0.0 0.1
03:48 10.9 10.8 99 1015.3 13.6 WSW 17.4 0.0 0.1
03:49 10.9 10.8 99 1015.4 9.8 WSW 17.4 0.0 0.1
03:50 10.9 10.8 99 1015.4 9.8 SW 14.5 0.0 0.1
03:51 10.9 10.8 99 1015.4 9.8 SW 13.6 0.0 0.1
03:52 10.9 10.8 99 1015.4 11.4 SW 13.6 0.0 0.1
03:53 10.9 10.8 99 1015.4 9.8 S 13.6 0.0 0.1
03:54 10.9 10.8 99 1015.3 15.2 SW 15.2 0.0 0.1
03:55 10.9 10.8 99 1015.4 15.9 SW 15.9 0.0 0.1
03:57 11.0 10.9 99 1015.5 9.2 SW 15.9 0.0 0.1
03:58 11.0 10.9 99 1015.5 11.4 S 15.9 0.0 0.1
03:59 11.0 10.9 99 1015.4 10.7 SW 15.9 0.0 0.1
04:00 11.0 10.9 99 1015.5 11.4 SW 15.9 0.0 0.1
04:01 11.0 10.9 99 1015.5 10.7 W 15.9 0.0 0.1
04:02 11.0 10.9 99 1015.8 9.2 S 15.9 0.0 0.1
04:03 11.0 10.9 99 1015.6 10.7 SW 15.9 0.0 0.1
04:04 11.0 10.9 99 1015.8 11.4 S 15.9 0.0 0.1
04:05 11.0 10.9 99 1015.7 13.6 WNW 15.9 0.0 0.1
04:06 11.0 10.9 99 1015.6 9.8 SW 13.6 0.0 0.1
04:07 11.0 10.9 99 1015.6 9.8 S 13.6 0.0 0.1
04:08 11.0 10.9 99 1015.6 9.8 SW 13.6 0.0 0.1
04:09 11.0 10.9 99 1015.6 13.0 W 13.6 0.0 0.1
04:10 11.0 10.9 99 1015.5 13.6 S 13.6 0.0 0.1
04:11 11.0 10.9 99 1015.5 14.5 S 15.2 0.0 0.1
04:12 11.0 10.9 99 1015.4 9.2 SW 15.2 0.0 0.1
04:13 11.0 10.9 99 1015.4 10.7 S 15.2 0.0 0.1
04:14 11.0 10.9 99 1015.4 11.4 SW 15.2 0.0 0.1
04:15 11.0 10.9 99 1015.3 14.5 NW 15.2 0.0 0.1
04:16 11.0 10.9 99 1015.5 9.8 S 15.2 0.0 0.1
04:18 11.0 10.9 99 1015.4 10.7 S 15.2 0.0 0.1
04:19 11.1 11.0 99 1015.3 9.8 S 15.2 0.0 0.1
04:20 11.0 10.9 99 1015.5 7.6 SW 15.2 0.0 0.1
04:21 11.0 10.9 99 1015.5 7.6 SW 14.5 0.0 0.1
04:22 11.0 10.9 99 1015.2 9.8 SW 14.5 0.0 0.1
04:23 11.0 10.9 99 1015.3 9.8 S 14.5 0.0 0.1
04:24 11.0 10.9 99 1015.5 10.7 SW 14.5 0.0 0.1
04:25 11.0 10.9 99 1015.4 6.9 SW 14.5 0.0 0.1
04:26 11.0 10.9 99 1015.7 9.8 W 12.1 0.0 0.1
04:27 11.0 10.9 99 1015.6 14.5 S 14.5 0.0 0.1
04:28 11.0 10.9 99 1015.7 11.4 SW 14.5 0.0 0.1
04:29 11.0 10.9 99 1015.5 10.7 SW 14.5 0.0 0.1
04:30 11.0 10.9 99 1015.5 9.8 SW 14.5 0.0 0.1
04:31 11.0 10.9 99 1015.5 13.0 SW 14.5 0.0 0.1
04:32 11.0 10.9 99 1015.4 14.5 SW 15.2 0.0 0.1
04:33 11.0 10.9 99 1015.5 13.6 SW 15.2 0.0 0.1
04:34 11.0 10.9 99 1015.4 9.8 SW 15.2 0.0 0.1
04:35 11.0 10.9 99 1015.4 9.2 S 15.2 0.0 0.1
04:37 11.0 10.9 99 1015.4 10.7 SW 15.2 0.0 0.1
04:38 11.0 10.9 99 1015.4 9.8 S 15.2 0.0 0.1
04:39 11.0 10.9 99 1015.5 13.0 S 15.2 0.0 0.1
04:40 11.0 10.9 99 1015.5 15.2 SW 15.2 0.0 0.1
04:41 11.0 10.9 99 1015.4 12.1 SSW 15.2 0.0 0.1
04:42 11.0 10.9 99 1015.4 10.7 S 15.2 0.0 0.1
04:43 10.9 10.8 99 1015.3 13.0 SW 15.2 0.0 0.1
04:44 11.0 10.9 99 1015.3 9.2 SW 15.2 0.0 0.1
04:45 10.9 10.8 99 1015.4 9.2 S 15.2 0.0 0.1
04:46 10.9 10.8 99 1015.4 14.5 SW 15.2 0.0 0.1
04:47 10.9 10.8 99 1015.6 10.7 SW 15.2 0.0 0.1
04:48 10.9 10.8 99 1015.5 10.7 SW 15.2 0.0 0.1
04:49 10.9 10.8 99 1015.6 9.8 SW 15.2 0.0 0.1
04:50 10.9 10.8 99 1015.6 11.4 S 14.5 0.0 0.1
04:51 10.9 10.8 99 1015.6 9.8 S 14.5 0.0 0.1
04:52 10.9 10.8 99 1015.4 6.0 SW 14.5 0.0 0.1
04:53 10.9 10.8 99 1015.4 11.4 S 14.5 0.0 0.1
04:54 10.9 10.8 99 1015.2 13.0 SW 14.5 0.0 0.1
04:56 10.9 10.8 99 1015.3 11.4 S 13.0 0.0 0.1
04:58 10.9 10.8 99 1015.3 9.2 SW 13.0 0.0 0.1
04:59 10.9 10.8 99 1015.3 13.0 S 13.0 0.0 0.1
05:00 10.9 10.8 99 1015.4 13.0 SSW 13.0 0.0 0.1
05:01 10.9 10.8 99 1015.3 9.8 NW 13.0 0.0 0.1
05:02 10.9 10.8 99 1015.4 6.0 SW 13.0 0.0 0.1
05:03 10.9 10.8 99 1015.6 6.0 SW 13.0 0.0 0.1
05:04 10.9 10.8 99 1015.7 6.0 SW 13.0 0.0 0.1
05:05 10.9 10.8 99 1015.8 6.0 SW 13.0 0.0 0.1
05:06 10.9 10.8 99 1015.7 6.0 SW 13.0 0.0 0.1
05:07 10.9 10.8 99 1015.6 6.0 SW 13.0 0.0 0.1
05:08 11.0 10.9 99 1015.5 9.2 SW 13.0 0.0 0.1
05:09 11.0 10.9 99 1015.6 12.1 S 13.0 0.0 0.1
05:10 11.0 10.9 99 1015.4 14.5 SSW 14.5 0.0 0.1
05:11 11.0 10.9 99 1015.5 13.0 WSW 14.5 0.0 0.1
05:12 11.0 10.9 99 1015.4 12.1 SW 14.5 0.0 0.1
05:13 11.0 10.9 99 1015.5 10.7 SW 14.5 0.0 0.1
05:14 11.0 10.9 99 1015.5 10.7 W 14.5 0.0 0.1
05:15 11.0 10.9 99 1015.5 11.4 NW 14.5 0.0 0.1
05:16 11.0 10.9 99 1015.6 10.7 SW 14.5 0.0 0.1
05:17 11.0 10.9 99 1015.4 9.8 SW 14.5 0.0 0.1
05:19 11.0 10.9 99 1015.4 11.4 WSW 14.5 0.0 0.1
05:20 11.0 10.9 99 1015.4 7.6 S 14.5 0.0 0.1
05:21 11.0 10.9 99 1015.5 9.2 NW 12.1 0.0 0.1
05:22 11.0 10.9 99 1015.5 13.6 SW 13.6 0.0 0.1
05:23 11.0 10.9 99 1015.5 15.2 SW 15.2 0.0 0.1
05:24 11.0 10.9 99 1015.4 14.5 SW 15.2 0.0 0.1
05:25 11.0 10.9 99 1015.5 13.0 S 15.2 0.0 0.1
05:26 11.0 10.9 99 1015.4 16.8 W 16.8 0.0 0.1
05:27 11.0 10.9 99 1015.5 14.5 SW 16.8 0.0 0.1
05:28 11.0 10.9 99 1015.4 14.5 SW 16.8 0.0 0.1
05:29 11.0 10.9 99 1015.4 15.2 SW 16.8 0.0 0.1
05:30 11.0 10.9 99 1015.4 14.5 SW 16.8 0.0 0.1
05:31 11.0 10.9 99 1015.6 13.6 NW 16.8 0.0 0.1
05:32 11.0 10.9 99 1015.5 14.5 SW 16.8 0.0 0.1
05:33 11.0 10.9 99 1015.4 12.1 SW 16.8 0.0 0.1
05:34 11.0 10.9 99 1015.5 12.1 WNW 16.8 0.0 0.1
05:35 11.0 10.9 99 1015.4 11.4 NW 16.8 0.0 0.1
05:36 11.0 10.9 99 1015.4 13.6 WSW 16.8 0.0 0.1
05:38 11.0 10.9 99 1015.4 10.7 SW 15.2 0.0 0.1
05:39 11.0 10.9 99 1015.5 13.6 S 15.2 0.0 0.1
05:40 11.0 10.9 99 1015.3 15.9 SW 15.9 0.0 0.1
05:41 11.0 10.9 99 1015.5 13.0 SSW 15.9 0.0 0.1
05:42 11.0 10.9 99 1015.4 10.7 WSW 15.9 0.0 0.1
05:43 11.0 10.9 99 1015.3 8.3 S 15.9 0.0 0.1
05:44 11.0 10.9 99 1015.3 10.7 S 15.9 0.0 0.1
05:45 11.0 10.9 99 1015.3 9.2 S 15.9 0.0 0.1
05:46 11.0 10.9 99 1015.4 7.6 SW 15.9 0.0 0.1
05:47 11.0 10.9 99 1015.3 12.1 SW 15.9 0.0 0.1
05:48 10.9 10.8 99 1015.4 12.1 SW 15.9 0.0 0.1
05:49 11.0 10.9 99 1015.5 11.4 S 15.9 0.0 0.1
05:50 11.0 10.9 99 1015.4 13.0 SW 15.9 0.0 0.1
05:51 11.0 10.9 99 1015.5 13.0 SW 13.0 0.0 0.1
05:52 10.9 10.8 99 1015.5 13.0 S 13.0 0.0 0.1
05:53 11.0 10.9 99 1015.5 18.3 SW 18.3 0.0 0.1
05:54 11.0 10.9 99 1015.5 13.6 SW 18.3 0.0 0.1
05:55 11.0 10.9 99 1015.6 14.5 SW 18.3 0.0 0.1
05:57 11.0 10.9 99 1015.5 13.6 S 18.3 0.0 0.1
05:58 11.0 10.9 99 1015.5 11.4 SW 18.3 0.0 0.1
05:59 11.0 10.9 99 1015.5 16.8 SE 18.3 0.0 0.1
06:00 10.9 10.8 99 1015.6 15.2 S 18.3 0.0 0.1
06:01 10.9 10.8 99 1015.6 13.6 S 18.3 0.0 0.1
06:02 11.0 10.9 99 1015.7 14.5 S 18.3 0.0 0.1
06:03 11.0 10.9 99 1015.6 14.5 S 16.8 0.0 0.1
06:04 10.9 10.8 99 1015.6 13.6 SW 16.8 0.0 0.1
06:05 10.9 10.8 99 1015.8 15.2 SW 16.8 0.0 0.1
06:06 10.9 10.8 99 1015.6 16.8 SW 16.8 0.0 0.1
06:07 10.9 10.8 99 1015.6 16.8 SW 16.8 0.0 0.1
06:08 10.9 10.8 99 1016.0 18.3 SW 18.3 0.0 0.1
06:09 10.9 10.8 99 1015.8 12.1 S 18.3 0.0 0.1
06:10 10.9 10.8 99 1015.8 15.9 SW 18.3 0.0 0.1
06:11 10.9 10.8 99 1015.7 12.1 S 18.3 0.0 0.1
06:12 10.9 10.8 99 1015.8 17.4 S 18.3 0.0 0.1
06:13 10.9 10.8 99 1015.8 15.2 SW 18.3 0.0 0.1
06:14 10.9 10.8 99 1015.8 16.8 SW 18.3 0.0 0.1
06:16 10.9 10.8 99 1015.9 14.5 WSW 18.3 0.0 0.1
06:17 10.9 10.8 99 1015.8 15.2 S 18.3 0.0 0.1
06:18 10.9 10.8 99 1016.0 14.5 NW 18.3 0.0 0.1
06:19 10.9 10.8 99 1016.0 15.9 NW 17.4 0.0 0.1
06:20 10.9 10.8 99 1016.2 13.0 S 17.4 0.0 0.1
06:21 10.9 10.8 99 1016.1 12.1 SW 17.4 0.0 0.1
06:22 10.9 10.8 99 1016.1 16.8 SW 17.4 0.0 0.1
06:23 10.9 10.8 99 1016.1 14.5 NW 17.4 0.0 0.1
06:24 10.9 10.8 99 1016.2 18.3 S 18.3 0.0 0.2
06:25 10.9 10.8 99 1016.1 15.9 S 18.3 0.8 0.2
06:26 10.8 10.7 99 1015.9 12.1 S 18.3 0.8 0.2
06:27 10.8 10.7 99 1016.2 13.6 SW 18.3 0.8 0.2
06:28 10.8 10.7 99 1016.2 8.3 SW 18.3 0.8 0.2
06:29 10.8 10.7 99 1016.3 13.6 SW 18.3 0.8 0.2
06:30 10.8 10.7 99 1016.3 9.8 S 18.3 0.0 0.2
06:31 10.8 10.7 99 1016.4 11.4 S 18.3 0.0 0.2
06:32 10.8 10.7 99 1016.3 12.1 S 18.3 0.0 0.2
06:33 10.8 10.7 99 1016.3 12.1 SW 18.3 0.0 0.2
06:35 10.8 10.7 99 1016.3 9.2 S 15.9 0.0 0.2
06:36 10.8 10.7 99 1016.4 12.1 SW 15.2 0.0 0.2
06:37 10.8 10.7 99 1016.4 11.4 SW 15.2 0.0 0.2
06:38 10.8 10.7 99 1016.5 15.9 SW 19.0 0.0 0.2
06:39 10.8 10.7 99 1016.4 15.9 S 19.0 0.0 0.2
06:40 10.8 10.7 99 1016.4 12.1 SW 19.0 0.0 0.2
06:41 10.8 10.7 99 1016.3 21.3 SW 21.3 0.0 0.2
06:42 10.8 10.7 99 1016.3 15.9 S 21.3 0.0 0.2
06:43 10.8 10.7 99 1016.3 18.3 SW 21.3 0.0 0.2
06:44 10.8 10.7 99 1016.2 19.7 S 21.3 0.0 0.2
06:45 10.8 10.7 99 1016.3 14.5 S 21.3 0.0 0.2
06:46 10.8 10.7 99 1016.3 20.6 NW 21.3 0.0 0.2
06:47 10.8 10.7 99 1016.2 19.7 SW 21.3 0.0 0.2
06:48 10.8 10.7 99 1016.2 11.4 NW 21.3 0.0 0.2
06:49 10.8 10.7 99 1016.2 13.6 S 21.3 0.0 0.2
06:50 10.8 10.7 99 1016.2 11.4 SW 21.3 0.0 0.2
06:51 10.8 10.7 99 1016.3 18.3 SW 21.3 0.0 0.2
06:52 10.8 10.7 99 1016.2 13.6 S 20.6 0.0 0.2
06:54 10.8 10.7 99 1016.2 15.2 WSW 20.6 0.0 0.2
06:55 10.8 10.7 99 1016.3 13.6 SSW 20.6 0.0 0.2
06:56 10.8 10.7 99 1016.2 9.8 SW 19.7 0.0 0.2
06:57 10.8 10.7 99 1016.2 14.5 NW 18.3 0.0 0.2
06:58 10.8 10.7 99 1016.3 13.6 S 18.3 0.0 0.2
06:59 10.8 10.7 99 1016.3 13.6 S 18.3 0.0 0.2
07:00 10.8 10.7 99 1016.3 14.5 SW 18.3 0.0 0.2
07:01 10.8 10.7 99 1016.3 12.1 SW 15.2 0.0 0.2
07:02 10.9 10.8 99 1016.3 12.1 SW 15.2 0.0 0.2
07:03 10.9 10.8 99 1016.4 12.1 SW 15.2 0.0 0.2
07:04 10.8 10.7 99 1016.4 12.1 SW 15.2 0.0 0.2
07:05 10.9 10.8 99 1016.3 13.6 SW 14.5 0.0 0.2
07:06 10.9 10.8 99 1016.3 10.7 NW 14.5 0.0 0.2
07:07 10.9 10.8 99 1016.3 15.9 SSW 15.9 0.0 0.2
07:08 10.8 10.7 99 1016.2 9.8 SSE 15.9 0.0 0.2
07:09 10.9 10.8 99 1016.2 13.6 S 15.9 0.0 0.2
07:10 10.8 10.7 99 1016.3 13.6 S 15.9 0.0 0.2
07:11 10.9 10.8 99 1016.2 15.2 S 15.9 0.0 0.2
07:12 10.9 10.8 99 1016.1 13.0 S 15.9 0.0 0.2
07:13 10.9 10.8 99 1016.2 14.5 SW 15.9 0.0 0.2
07:14 10.9 10.8 99 1016.1 12.1 S 15.9 0.0 0.2
07:15 10.9 10.8 99 1016.2 9.8 SW 15.9 0.0 0.2
07:17 10.8 10.7 99 1016.2 12.1 WNW 15.9 0.0 0.2
07:18 10.9 10.8 99 1016.1 14.5 SE 15.2 0.0 0.2
07:19 10.8 10.7 99 1016.1 14.5 S 15.2 0.0 0.2
07:20 10.8 10.7 99 1016.3 12.1 WNW 15.2 0.0 0.2
07:21 10.9 10.8 99 1016.2 15.9 SW 15.9 0.0 0.2
07:22 10.9 10.8 99 1016.2 12.1 S 15.9 0.0 0.2
07:23 10.9 10.8 99 1016.2 12.1 S 15.9 0.0 0.2
07:24 10.9 10.8 99 1016.2 13.6 SW 15.9 0.0 0.2
07:25 10.9 10.8 99 1016.3 11.4 SW 15.9 0.0 0.2
07:26 10.9 10.8 99 1016.1 12.1 SW 15.9 0.0 0.2
07:27 10.9 10.8 99 1016.1 12.1 SW 15.9 0.0 0.2
07:28 10.9 10.8 99 1016.2 15.9 SW 15.9 0.0 0.2
07:29 10.9 10.8 99 1016.2 13.6 SE 15.9 0.0 0.2
07:30 10.9 10.8 99 1016.2 12.1 SW 15.9 0.0 0.2
07:31 10.9 10.8 99 1016.3 17.4 SW 17.4 0.8 0.3
07:32 10.9 10.8 99 1016.4 12.1 S 17.4 0.8 0.3
07:33 10.9 10.8 99 1016.3 15.2 S 17.4 0.8 0.3
07:35 11.0 10.9 99 1016.3 15.9 SW 17.4 0.8 0.3
07:36 11.0 10.9 99 1016.3 15.2 S 17.4 0.0 0.3
07:37 11.0 10.9 99 1016.3 15.9 S 17.4 0.0 0.3
07:38 11.0 10.9 99 1016.3 13.0 SW 17.4 0.0 0.3
07:39 11.0 10.9 99 1016.2 18.3 SW 18.3 0.0 0.3
07:40 11.0 10.9 99 1016.1 14.5 S 18.3 0.8 0.3
07:41 11.0 10.9 99 1016.2 13.6 SSW 18.3 0.8 0.3
07:42 11.0 10.9 99 1016.2 15.9 SE 18.3 0.8 0.3
07:43 11.0 10.9 99 1016.3 15.9 SW 18.3 0.8 0.3
07:44 11.0 10.9 99 1016.3 12.1 SW 18.3 0.8 0.3
07:45 11.0 10.9 99 1016.3 12.1 SW 18.3 0.0 0.3
07:46 11.0 10.9 99 1016.2 11.4 SW 18.3 0.0 0.3
07:47 11.0 10.9 99 1016.3 13.0 S 18.3 0.0 0.3
07:48 11.1 11.0 99 1016.3 14.5 SW 18.3 0.0 0.3
07:49 11.0 10.9 99 1016.4 13.6 SW 18.3 0.0 0.3
07:50 11.1 11.0 99 1016.4 13.0 S 15.9 0.0 0.3
07:51 11.1 11.0 99 1016.5 18.3 SW 18.3 0.0 0.3
07:52 11.1 11.0 99 1016.5 13.6 S 18.3 0.0 0.3
07:53 11.1 11.0 99 1016.6 15.9 NNW 18.3 0.0 0.3
07:54 11.1 11.0 99 1016.4 11.4 SW 18.3 0.0 0.3
07:55 11.1 11.0 99 1016.5 15.2 SSW 18.3 0.0 0.3
07:56 11.1 11.0 99 1016.6 16.8 SW 18.3 0.0 0.3
07:57 11.1 11.0 99 1016.6 9.8 SE 18.3 0.0 0.3
07:58 11.1 11.0 99 1016.5 13.0 SE 18.3 0.0 0.3
07:59 11.1 11.0 99 1016.4 13.6 S 18.3 0.0 0.3
08:00 11.1 11.0 99 1016.6 11.4 S 18.3 0.0 0.3
08:01 11.1 11.0 99 1016.7 11.4 S 18.3 0.0 0.3
08:02 11.1 11.0 99 1016.6 14.5 SW 16.8 0.0 0.3
08:03 11.1 11.0 99 1016.4 14.5 SW 16.8 0.0 0.3
08:04 11.1 11.0 99 1016.7 17.4 SW 17.4 0.0 0.3
08:05 11.1 11.0 99 1016.7 13.6 S 17.4 0.0 0.3
08:06 11.1 11.0 99 1016.7 13.0 SW 17.4 0.0 0.3
08:07 11.1 11.0 99 1016.7 14.5 S 17.4 0.0 0.3
08:08 11.1 11.0 99 1016.8 13.6 S 17.4 0.0 0.3
08:09 11.2 11.1 99 1016.8 14.5 S 17.4 0.0 0.3
08:10 11.2 11.1 99 1016.7 11.4 S 17.4 0.0 0.3
08:11 11.2 11.1 99 1016.6 13.6 WSW 17.4 0.0 0.3
08:12 11.2 11.1 99 1016.8 17.4 SW 17.4 0.0 0.3
08:13 11.2 11.1 99 1016.8 15.2 SW 17.4 0.0 0.3
08:14 11.2 11.1 99 1016.8 15.2 SW 17.4 0.0 0.3
08:15 11.2 11.1 99 1016.8 16.8 SW 17.4 0.8 0.4
08:16 11.2 11.1 99 1016.9 16.8 S 17.4 0.8 0.4
08:17 11.2 11.1 99 1016.8 12.1 S 17.4 0.8 0.4
08:18 11.2 11.1 99 1016.9 11.4 S 17.4 0.8 0.4
08:19 11.2 11.1 99 1016.8 13.6 SW 17.4 0.8 0.4
08:20 11.2 11.1 99 1016.9 13.0 S 17.4 0.0 0.4
08:21 11.2 11.1 99 1017.0 15.9 S 17.4 0.0 0.4
08:22 11.2 11.1 99 1017.0 12.1 SW 16.8 0.0 0.4
08:23 11.2 11.1 99 1016.8 26.6 S 26.6 0.0 0.4
08:24 11.2 11.1 99 1016.9 15.9 SW 26.6 0.0 0.4
08:25 11.2 11.1 99 1016.9 12.1 SW 26.6 0.0 0.4
08:26 11.2 11.1 99 1017.0 13.6 S 26.6 0.0 0.4
08:27 11.2 11.1 99 1017.1 13.0 SW 26.6 0.0 0.4
08:28 11.2 11.1 99 1016.9 15.9 SW 26.6 0.0 0.4
08:29 11.2 11.1 99 1017.1 18.3 S 26.6 0.0 0.4
08:30 11.2 11.1 99 1016.8 15.2 S 26.6 0.0 0.4
08:31 11.2 11.1 99 1016.9 15.2 S 26.6 0.0 0.4
08:32 11.3 11.2 99 1016.7 16.8 S 26.6 0.0 0.4
08:34 11.3 11.2 99 1016.8 11.4 S 18.3 0.0 0.4
08:35 11.3 11.2 99 1016.9 12.1 SE 18.3 0.0 0.4
08:36 11.3 11.2 99 1017.0 12.1 S 18.3 0.0 0.4
08:37 11.3 11.2 99 1017.0 13.0 S 18.3 0.0 0.4
08:38 11.3 11.2 99 1016.9 13.0 S 18.3 0.0 0.4
08:39 11.3 11.2 99 1016.8 15.2 S 16.8 0.0 0.4
08:40 11.3 11.2 99 1016.8 14.5 SW 16.8 0.0 0.4
08:41 11.3 11.2 99 1017.0 11.4 S 16.8 0.0 0.4
08:42 11.3 11.2 99 1016.8 10.7 S 15.2 0.0 0.4
08:43 11.3 11.2 99 1016.8 15.2 SSW 15.2 0.0 0.4
08:44 11.3 11.2 99 1016.8 19.0 SE 19.0 0.0 0.4
08:45 11.3 11.2 99 1016.7 18.3 SW 19.0 0.0 0.4
08:46 11.3 11.2 99 1016.8 12.1 S 19.0 0.0 0.4
08:47 11.3 11.2 99 1016.8 15.9 S 19.0 0.0 0.4
08:48 11.3 11.2 99 1016.7 19.7 S 19.7 0.0 0.4
08:49 11.3 11.2 99 1016.9 15.9 SW 19.7 0.0 0.4
08:50 11.3 11.2 99 1016.8 15.2 NW 19.7 0.0 0.4
08:51 11.3 11.2 99 1016.7 12.1 S 19.7 0.0 0.4
08:52 11.3 11.2 99 1016.9 15.2 W 19.7 0.0 0.4
08:53 11.3 11.2 99 1017.0 11.4 S 19.7 0.0 0.4
08:54 11.3 11.2 99 1017.1 16.8 S 19.7 0.0 0.4
08:55 11.3 11.2 99 1016.8 14.5 NNW 19.7 0.0 0.4
08:56 11.3 11.2 99 1017.0 15.2 S 19.7 0.0 0.4
08:57 11.3 11.2 99 1017.0 11.4 SW 19.7 0.0 0.4
08:58 11.3 11.2 99 1017.1 15.9 S 19.7 0.0 0.4
08:59 11.3 11.2 99 1017.0 13.6 S 16.8 0.0 0.4
09:00 11.3 11.2 99 1017.0 13.6 S 16.8 0.0 0.4
09:01 11.3 11.2 99 1016.9 14.5 SW 16.8 0.0 0.4
09:02 11.3 11.2 99 1016.8 14.5 SW 16.8 0.0 0.4
09:03 11.3 11.2 99 1016.9 14.5 SW 16.8 0.0 0.4
09:04 11.3 11.2 99 1017.0 13.6 S 15.9 0.0 0.4
09:06 11.3 11.2 99 1016.9 17.4 S 17.4 0.8 0.4
09:07 11.3 11.2 99 1016.7 19.7 NW 19.7 0.8 0.4
09:08 11.4 11.3 99 1017.1 13.0 S 19.7 0.8 0.4
09:09 11.3 11.2 99 1016.8 13.6 SW 19.7 0.8 0.4
09:10 11.3 11.2 99 1017.0 14.5 NW 19.7 0.0 0.4
09:11 11.3 11.2 99 1017.0 15.9 S 19.7 0.0 0.4
09:12 11.4 11.3 99 1017.0 14.5 S 19.7 0.0 0.4
09:13 11.4 11.3 99 1017.0 13.0 SW 19.7 0.0 0.4
09:14 11.4 11.3 99 1016.9 9.8 SW 19.7 0.0 0.4
09:15 11.4 11.3 99 1016.9 9.8 SW 19.7 0.0 0.4
09:16 11.4 11.3 99 1017.1 15.9 S 19.7 0.0 0.4
09:17 11.4 11.3 99 1017.0 21.3 SW 21.3 0.0 0.4
09:18 11.4 11.3 99 1016.9 17.4 SW 21.3 0.0 0.4
09:19 11.4 11.3 99 1016.9 18.3 S 21.3 0.0 0.4
09:20 11.4 11.3 99 1017.1 11.4 S 21.3 0.0 0.4
09:21 11.4 11.3 99 1016.9 15.9 S 21.3 0.0 0.4
09:22 11.4 11.3 99 1017.1 14.5 S 21.3 0.0 0.4
09:23 11.5 11.4 99 1017.0 15.2 SW 21.3 0.0 0.4
09:24 11.5 11.4 99 1017.0 15.2 SW 21.3 0.0 0.4
09:25 11.4 11.3 99 1017.0 15.2 S 21.3 0.0 0.4
09:26 11.4 11.3 99 1017.0 15.2 S 21.3 0.0 0.4
09:27 11.4 11.3 99 1017.1 13.6 S 18.3 0.0 0.4
09:28 11.4 11.3 99 1017.1 18.3 SW 18.3 0.0 0.4
09:29 11.4 11.3 99 1017.1 15.9 NW 18.3 0.0 0.4
09:30 11.4 11.3 99 1016.9 17.4 SW 18.3 0.0 0.4
09:31 11.4 11.3 99 1017.0 11.4 SSW 18.3 0.0 0.4
09:32 11.4 11.3 99 1016.9 15.2 S 18.3 0.0 0.4
09:33 11.4 11.3 99 1017.0 14.5 S 18.3 0.0 0.4
09:34 11.4 11.3 99 1016.9 15.2 S 18.3 0.0 0.4
09:35 11.4 11.3 99 1016.9 17.4 S 18.3 0.0 0.4
09:36 11.5 11.4 99 1016.9 13.0 SW 18.3 0.0 0.4
09:37 11.4 11.3 99 1017.0 12.1 S 18.3 0.0 0.4
09:38 11.4 11.3 99 1017.0 9.8 S 17.4 0.0 0.4
09:39 11.4 11.3 99 1017.0 9.8 S 17.4 0.0 0.4
09:40 11.5 11.4 99 1017.0 12.1 N 17.4 0.0 0.4
09:41 11.5 11.4 99 1016.9 16.8 SW 17.4 0.0 0.4
09:42 11.5 11.4 99 1017.1 15.9 SSW 17.4 0.0 0.4
09:43 11.5 11.4 99 1016.9 10.7 SW 17.4 0.0 0.4
09:44 11.5 11.4 99 1016.9 10.7 SW 17.4 0.0 0.4
09:45 11.5 11.4 99 1017.0 13.0 S 16.8 0.0 0.4
09:46 11.5 11.4 99 1016.9 14.5 S 16.8 0.0 0.4
09:47 11.5 11.4 99 1017.0 14.5 S 16.8 0.0 0.4
09:48 11.5 11.4 99 1017.1 14.5 SW 16.8 0.0 0.4
09:49 11.5 11.4 99 1017.0 15.9 S 16.8 0.0 0.4
09:50 11.5 11.4 99 1016.8 13.6 S 16.8 0.0 0.4
09:51 11.5 11.4 99 1016.9 13.0 SW 16.8 0.0 0.4
09:52 11.5 11.4 99 1016.7 11.4 S 16.8 0.0 0.4
09:53 11.5 11.4 99 1017.0 15.2 SW 18.3 0.0 0.4
09:54 11.5 11.4 99 1017.0 20.6 S 20.6 0.0 0.4
09:55 11.5 11.4 99 1017.1 18.3 SW 20.6 0.0 0.4
09:56 11.5 11.4 99 1017.0 17.4 SW 20.6 0.0 0.4
09:57 11.5 11.4 99 1017.1 15.2 S 20.6 0.0 0.4
09:58 11.5 11.4 99 1017.1 15.2 S 20.6 0.0 0.4
09:59 11.5 11.4 99 1017.1 15.2 SW 20.6 0.0 0.4
10:00 11.5 11.4 99 1017.2 13.6 SW 21.3 0.0 0.4
10:01 11.5 11.4 99 1017.2 13.6 S 21.3 0.0 0.4
10:02 11.5 11.4 99 1017.3 13.6 S 21.3 0.0 0.4
10:03 11.5 11.4 99 1017.3 13.6 S 21.3 0.0 0.4
10:04 11.5 11.4 99 1017.3 15.2 S 21.3 0.0 0.4
10:05 11.5 11.4 99 1017.2 17.4 S 21.3 0.0 0.4
10:06 11.5 11.4 99 1017.3 13.6 SW 21.3 0.0 0.4
10:07 11.5 11.4 99 1017.2 14.5 S 21.3 0.0 0.4
10:08 11.5 11.4 99 1017.4 15.9 S 21.3 0.0 0.4
10:09 11.5 11.4 99 1017.3 13.0 S 21.3 0.0 0.4
10:10 11.5 11.4 99 1017.3 13.6 SE 17.4 0.0 0.4
10:11 11.5 11.4 99 1017.2 19.0 SW 19.0 0.0 0.4
10:12 11.7 11.6 99 1017.5 14.5 SW 19.0 0.0 0.4
10:13 11.5 11.4 99 1017.3 16.8 SW 19.0 0.0 0.4
10:14 11.6 11.5 99 1017.3 17.4 SW 19.0 0.0 0.4
10:15 11.6 11.5 99 1017.4 19.7 SE 19.7 0.0 0.4
10:16 11.6 11.5 99 1017.3 19.0 SW 20.6 0.0 0.4
10:17 11.6 11.5 99 1017.3 14.5 S 20.6 0.0 0.4
10:18 11.6 11.5 99 1017.3 14.5 S 20.6 0.0 0.4
10:19 11.6 11.5 99 1017.3 18.3 SW 20.6 0.0 0.4
10:20 11.6 11.5 99 1017.4 17.4 SW 20.6 0.0 0.4
10:21 11.6 11.5 99 1017.3 13.0 S 20.6 0.0 0.4
10:22 11.6 11.5 99 1017.3 10.7 S 20.6 0.0 0.4
10:23 11.6 11.5 99 1017.3 12.1 SW 20.6 0.0 0.4
10:24 11.6 11.5 99 1017.3 11.4 SW 20.6 0.0 0.4
10:25 11.6 11.5 99 1017.4 17.4 SW 20.6 0.0 0.4
10:26 11.6 11.5 99 1017.4 13.0 WSW 19.0 0.0 0.4
10:27 11.6 11.5 99 1017.4 13.0 WSW 19.0 0.0 0.4
10:28 11.6 11.5 99 1017.4 12.1 SW 19.0 0.0 0.4
10:29 11.6 11.5 99 1017.4 11.4 S 19.0 0.0 0.4
10:30 11.6 11.5 99 1017.3 16.8 SW 19.0 0.0 0.4
10:31 11.6 11.5 99 1017.3 11.4 S 19.0 0.0 0.4
10:32 11.6 11.5 99 1017.4 16.8 S 19.0 0.0 0.4
10:33 11.6 11.5 99 1017.4 17.4 NNE 19.0 0.0 0.4
10:34 11.6 11.5 99 1017.5 15.2 S 19.0 0.0 0.4
10:35 11.6 11.5 99 1017.6 12.1 SW 19.0 0.0 0.4
10:36 11.6 11.5 99 1017.5 18.3 NE 19.0 0.0 0.4
10:37 11.6 11.5 99 1017.5 12.1 SW 19.0 0.0 0.4
10:38 11.6 11.5 99 1017.6 11.4 SE 19.0 0.0 0.4
10:39 11.6 11.5 99 1017.5 16.8 S 19.0 0.0 0.4
10:40 11.6 11.5 99 1017.3 15.2 S 19.0 0.0 0.4
10:41 11.6 11.5 99 1017.7 15.2 SW 19.0 0.0 0.4
10:42 11.6 11.5 99 1017.5 20.6 SW 20.6 0.0 0.4
10:43 11.6 11.5 99 1017.4 19.0 S 20.6 0.0 0.4
10:44 11.6 11.5 99 1017.6 17.4 S 20.6 0.0 0.4
10:45 11.7 11.6 99 1017.5 18.3 S 20.6 0.0 0.4
10:46 11.7 11.6 99 1017.6 15.2 S 20.6 0.0 0.4
10:47 11.7 11.6 99 1017.4 13.0 S 20.6 0.0 0.4
10:48 11.7 11.6 99 1017.6 18.3 S 20.6 0.0 0.4
10:49 11.7 11.6 99 1017.6 14.5 WSW 20.6 0.0 0.4
10:50 11.6 11.5 99 1017.5 13.0 SW 20.6 0.0 0.4
10:51 11.7 11.6 99 1017.6 19.0 SW 20.6 0.0 0.4
10:52 11.7 11.6 99 1017.5 18.3 SW 20.6 0.0 0.4
10:53 11.7 11.6 99 1017.5 19.0 SW 20.6 0.0 0.4
10:54 11.7 11.6 99 1017.5 15.2 S 20.6 0.0 0.4
10:55 11.7 11.6 99 1017.5 15.2 S 20.6 0.0 0.4
10:56 11.7 11.6 99 1017.5 13.0 S 20.6 0.0 0.4
10:57 11.7 11.6 99 1017.6 22.8 S 22.8 0.0 0.4
10:58 11.7 11.6 99 1017.4 17.4 S 22.8 0.0 0.4
10:59 11.7 11.6 99 1017.5 13.0 W 22.8 0.0 0.4
11:00 11.7 11.6 99 1017.4 14.5 S 22.8 0.0 0.4
11:01 11.7 11.6 99 1017.4 13.0 SW 22.8 0.0 0.4
11:02 11.7 11.6 99 1017.6 14.5 S 22.8 0.0 0.4
11:03 11.7 11.6 99 1017.4 14.5 S 22.8 0.0 0.4
11:04 11.7 11.6 99 1017.4 18.3 S 22.8 0.0 0.4
11:06 11.7 11.6 99 1017.5 14.5 S 22.8 0.0 0.4
11:07 11.7 11.6 99 1017.4 13.0 S 22.8 0.0 0.4
11:08 11.7 11.6 99 1017.4 9.2 SW 18.3 0.0 0.4
11:09 11.7 11.6 99 1017.2 15.9 SW 18.3 0.0 0.4
11:10 11.7 11.6 99 1017.4 19.0 S 19.0 0.0 0.4
11:11 11.7 11.6 99 1017.4 15.2 S 19.0 0.0 0.4
11:12 11.7 11.6 99 1017.3 12.1 S 19.0 0.0 0.4
11:13 11.7 11.6 99 1017.5 13.0 S 19.0 0.0 0.4
11:14 11.7 11.6 99 1017.3 13.0 S 19.0 0.0 0.4
11:15 11.7 11.6 99 1017.3 13.0 S 19.0 0.0 0.4
11:16 11.7 11.6 99 1017.3 13.6 S 19.7 0.0 0.4
11:17 11.7 11.6 99 1017.3 15.2 SW 19.7 0.0 0.4
11:18 11.7 11.6 99 1017.2 15.9 SW 19.7 0.0 0.4
11:19 11.7 11.6 99 1017.4 14.5 SE 19.7 0.0 0.4
11:20 11.7 11.6 99 1017.2 9.2 SW 19.7 0.0 0.4
11:21 11.7 11.6 99 1017.4 17.4 SW 19.7 0.0 0.4
11:22 11.8 11.7 99 1017.4 18.3 SW 19.7 0.0 0.4
11:23 11.8 11.7 99 1017.4 19.0 S 19.7 0.0 0.4
11:24 11.7 11.6 99 1017.4 15.2 NE 19.7 0.0 0.4
11:25 11.8 11.7 99 1017.3 15.2 S 19.7 0.0 0.4
11:26 11.7 11.6 99 1017.3 17.4 WSW 19.0 0.0 0.4
11:27 11.8 11.7 99 1017.3 14.5 WSW 19.0 0.0 0.4
11:28 11.8 11.7 99 1017.3 15.2 S 19.0 0.0 0.4
11:29 11.8 11.7 99 1017.3 14.5 SW 19.0 0.0 0.4
11:30 11.8 11.7 99 1017.3 14.5 SW 19.0 0.0 0.4
11:31 11.8 11.7 99 1017.3 11.4 SW 19.0 0.0 0.4
11:32 11.8 11.7 99 1017.4 13.6 S 19.0 0.0 0.4
11:33 11.8 11.7 99 1017.4 19.0 S 19.0 0.0 0.4
11:34 11.8 11.7 99 1017.4 13.6 WSW 19.0 0.0 0.4
11:35 11.8 11.7 99 1017.3 19.0 SW 19.0 0.0 0.4
11:36 11.8 11.7 99 1017.3 16.8 S 19.0 0.0 0.4
11:38 11.8 11.7 99 1017.3 13.6 S 19.0 0.0 0.4
11:39 11.8 11.7 99 1017.3 18.3 WSW 19.0 0.0 0.4
11:40 11.8 11.7 99 1017.2 18.3 SW 19.0 0.0 0.4
11:41 11.8 11.7 99 1017.2 16.8 SE 19.0 0.0 0.4
11:42 11.8 11.7 99 1017.3 13.6 SW 19.0 0.0 0.4
11:43 11.8 11.7 99 1017.2 13.0 SW 19.0 0.0 0.4
11:44 11.8 11.7 99 1017.1 12.1 W 19.0 0.0 0.4
11:45 11.8 11.7 99 1017.1 15.2 S 19.0 0.0 0.4
11:46 11.8 11.7 99 1017.2 13.6 SE 19.0 0.0 0.4
11:47 11.8 11.7 99 1017.2 13.0 SW 19.0 0.0 0.4
11:48 11.8 11.7 99 1017.3 13.0 SW 18.3 0.0 0.4
11:49 11.8 11.7 99 1017.2 13.0 SW 18.3 0.0 0.4
11:50 11.8 11.7 99 1017.2 14.5 S 18.3 0.0 0.4
11:52 11.8 11.7 99 1017.2 9.8 S 15.2 0.0 0.4
11:53 11.8 11.7 99 1017.2 13.0 S 15.2 0.0 0.4
11:54 11.9 11.8 99 1017.2 18.3 S 18.3 0.0 0.5
11:55 11.8 11.7 99 1017.2 13.6 S 18.3 0.8 0.5
11:56 11.8 11.7 99 1017.0 15.9 S 18.3 0.8 0.5
11:57 11.8 11.7 99 1017.2 14.5 S 18.3 0.8 0.5
11:58 11.9 11.8 99 1017.1 12.1 S 18.3 0.8 0.5
11:59 11.8 11.7 99 1017.2 13.6 SW 18.3 0.8 0.5
12:00 11.8 11.7 99 1017.1 14.5 S 18.3 0.0 0.5
12:01 11.8 11.7 99 1017.0 15.2 SW 18.3 0.0 0.5
12:02 11.8 11.7 99 1017.3 18.3 S 18.3 0.0 0.5
12:03 11.8 11.7 99 1017.2 18.3 S 18.3 0.0 0.5
12:04 11.8 11.7 99 1017.1 15.9 S 18.3 0.0 0.5
12:05 11.8 11.7 99 1017.0 15.9 S 18.3 0.0 0.5
12:06 11.9 11.8 99 1017.0 13.0 SE 18.3 0.0 0.5
12:07 11.9 11.8 99 1017.0 15.9 S 18.3 0.0 0.5
12:08 11.9 11.8 99 1017.2 17.4 S 18.3 0.0 0.5
12:09 11.9 11.8 99 1017.0 19.7 NNE 19.7 0.0 0.5
12:10 11.9 11.8 99 1017.0 14.5 S 19.7 0.0 0.5
12:11 11.9 11.8 99 1016.9 15.2 SE 19.7 0.0 0.5
12:12 11.9 11.8 99 1016.9 13.6 SW 19.7 0.0 0.5
12:13 11.9 11.8 99 1017.2 17.4 S 19.7 0.0 0.5
12:14 11.9 11.8 99 1016.9 10.7 S 19.7 0.0 0.5
12:15 11.9 11.8 99 1016.9 15.2 SW 19.7 0.0 0.5
12:16 11.9 11.8 99 1016.9 13.0 S 19.7 0.0 0.5
12:17 11.9 11.8 99 1016.9 14.5 SW 19.7 0.0 0.5
12:18 11.9 11.8 99 1017.0 12.1 W 19.7 0.0 0.5
12:19 11.9 11.8 99 1017.0 17.4 S 19.7 0.0 0.5
12:20 11.9 11.8 99 1017.0 19.0 S 20.6 0.0 0.5
12:21 12.0 11.9 99 1016.9 15.2 SW 20.6 0.0 0.5
12:22 12.0 11.9 99 1016.8 14.5 SW 20.6 0.0 0.5
12:23 12.0 11.9 99 1016.9 14.5 SW 20.6 0.0 0.5
12:24 11.9 11.8 99 1016.7 21.3 SW 21.3 0.0 0.5
12:25 11.9 11.8 99 1016.9 15.9 S 21.3 0.0 0.5
12:26 11.9 11.8 99 1016.9 17.4 S 21.3 0.0 0.5
12:27 11.9 11.8 99 1016.9 17.4 S 21.3 0.0 0.5
12:28 11.9 11.8 99 1016.8 15.9 SW 21.3 0.0 0.5
12:29 12.0 11.9 99 1016.9 18.3 SE 21.3 0.0 0.5
12:30 11.9 11.8 99 1016.9 15.2 SW 21.3 0.0 0.5
12:31 11.9 11.8 99 1016.8 12.1 SW 21.3 0.0 0.5
12:32 12.0 11.9 99 1016.8 20.6 SW 21.3 0.0 0.5
12:33 12.0 11.9 99 1016.9 18.3 SW 21.3 0.0 0.5
12:35 12.0 11.9 99 1016.8 18.3 S 20.6 0.0 0.5
12:36 12.0 11.9 99 1016.7 18.3 S 20.6 0.0 0.5
12:37 12.0 11.9 99 1016.6 13.0 S 20.6 0.0 0.5
12:38 12.0 11.9 99 1016.7 18.3 SW 20.6 0.0 0.5
12:39 12.0 11.9 99 1016.6 15.2 S 20.6 0.0 0.5
12:40 12.0 11.9 99 1016.7 17.4 SW 20.6 0.0 0.5
12:41 12.0 11.9 99 1016.6 20.6 S 20.6 0.0 0.5
12:42 12.0 11.9 99 1016.8 15.9 S 20.6 0.0 0.5
12:43 12.0 11.9 99 1016.6 16.8 SW 20.6 0.0 0.5
12:44 12.0 11.9 99 1016.5 11.4 S 20.6 0.0 0.5
12:45 12.0 11.9 99 1016.6 13.0 SW 20.6 0.0 0.5
12:46 12.0 11.9 99 1016.6 15.9 S 20.6 0.0 0.5
12:47 12.0 11.9 99 1016.6 13.6 S 20.6 0.0 0.5
12:49 12.0 11.9 99 1016.8 22.1 SSW 22.1 0.0 0.5
12:50 12.0 11.9 99 1016.6 21.3 SW 22.1 0.0 0.5
12:51 12.0 11.9 99 1016.5 18.3 WNW 22.1 0.0 0.5
12:52 12.0 11.9 99 1016.4 17.4 S 22.1 0.0 0.5
12:53 12.0 11.9 99 1016.6 14.5 SW 22.1 0.0 0.5
12:54 12.0 11.9 99 1016.5 18.3 SSW 22.1 0.0 0.5
12:55 12.0 11.9 99 1016.5 18.3 SSW 22.1 0.0 0.5
12:56 12.0 11.9 99 1016.5 17.4 S 22.1 0.0 0.5
12:57 12.0 11.9 99 1016.5 14.5 N 22.1 0.0 0.5
12:58 12.0 11.9 99 1016.5 13.6 S 22.1 0.0 0.5
12:59 12.0 11.9 99 1016.5 13.0 S 22.1 0.0 0.5
13:00 12.0 11.9 99 1016.5 15.9 SW 21.3 0.0 0.5
13:01 12.0 11.9 99 1016.5 13.0 S 18.3 0.0 0.5
13:02 12.0 11.9 99 1016.5 16.8 S 18.3 0.0 0.5
13:03 12.0 11.9 99 1016.3 16.8 S 18.3 0.0 0.5
13:04 12.0 11.9 99 1016.6 11.4 SW 18.3 0.0 0.5
13:05 12.0 11.9 99 1016.4 18.3 S 18.3 0.0 0.5
13:07 12.0 11.9 99 1016.5 20.6 S 20.6 0.0 0.5
13:08 12.0 11.9 99 1016.4 19.0 SW 20.6 0.0 0.5
13:10 12.0 11.9 99 1016.5 15.2 SW 20.6 0.0 0.5
13:11 12.0 11.9 99 1016.4 15.2 S 20.6 0.0 0.5
13:12 12.0 11.9 99 1016.5 17.4 SW 20.6 0.0 0.5
13:13 12.0 11.9 99 1016.3 13.6 SW 20.6 0.0 0.5
13:14 12.1 12.0 99 1016.3 15.2 SSW 20.6 0.0 0.5
13:15 12.0 11.9 99 1016.3 16.8 SW 20.6 0.0 0.5
13:16 12.1 12.0 99 1016.4 18.3 S 20.6 0.0 0.5
13:17 12.0 11.9 99 1016.3 16.8 S 19.7 0.0 0.5
13:18 12.0 11.9 99 1016.3 15.2 S 19.0 0.0 0.5
13:19 12.0 11.9 99 1016.3 11.4 SW 18.3 0.0 0.5
13:20 12.0 11.9 99 1016.4 17.4 S 18.3 0.0 0.5
13:21 12.1 12.0 99 1016.4 14.5 S 18.3 0.0 0.5
13:22 12.1 12.0 99 1016.3 17.4 SW 18.3 0.0 0.5
13:23 12.1 12.0 99 1016.3 15.2 S 20.6 0.0 0.5
13:25 12.0 11.9 99 1016.3 17.4 S 20.6 0.0 0.5
13:26 12.1 12.0 99 1016.3 17.4 SW 20.6 0.0 0.5
13:27 12.0 11.9 99 1016.3 18.3 S 20.6 0.0 0.5
13:28 12.1 12.0 99 1016.3 19.0 S 20.6 0.0 0.5
13:29 12.1 12.0 99 1016.4 22.1 S 22.1 0.8 0.6
13:30 12.1 12.0 99 1016.4 22.1 S 22.1 0.8 0.6
13:31 12.1 12.0 99 1016.2 16.8 S 22.1 0.8 0.6
13:32 12.1 12.0 99 1016.3 13.0 SSW 22.1 0.8 0.6
13:33 12.1 12.0 99 1016.3 13.6 SW 22.1 0.8 0.6
13:34 12.1 12.0 99 1016.3 13.6 SW 22.1 0.0 0.6
13:35 12.1 12.0 99 1016.3 17.4 S 22.1 0.0 0.6
13:36 12.1 12.0 99 1016.2 15.2 SW 22.1 0.0 0.6
13:37 12.1 12.0 99 1016.3 14.5 SW 22.1 0.0 0.6
13:39 12.1 12.0 99 1016.3 13.6 S 22.1 0.8 0.6
13:40 12.1 12.0 99 1016.2 13.6 SW 18.3 0.8 0.6
13:41 12.1 12.0 99 1016.3 17.4 S 18.3 0.8 0.6
13:42 12.1 12.0 99 1016.0 13.6 SW 18.3 0.8 0.6
13:43 12.1 12.0 99 1016.2 15.2 SW 18.3 0.0 0.6
13:44 12.1 12.0 99 1016.2 15.9 SW 18.3 0.0 0.6
13:45 12.1 12.0 99 1016.2 15.2 S 18.3 0.8 0.7
13:46 12.1 12.0 99 1016.2 17.4 SW 18.3 0.8 0.7
13:47 12.1 12.0 99 1016.2 21.3 S 21.3 0.8 0.7
13:48 12.1 12.0 99 1016.3 19.0 SE 21.3 0.8 0.7
13:49 12.1 12.0 99 1016.1 19.7 SW 21.3 0.8 0.7
13:50 12.1 12.0 99 1016.1 22.1 SW 22.1 0.0 0.7
13:51 12.1 12.0 99 1016.1 16.8 SW 22.1 0.0 0.7
13:53 12.1 12.0 99 1016.1 15.2 S 22.1 0.0 0.7
13:54 12.1 12.0 99 1016.0 14.5 S 22.1 0.0 0.7
13:55 12.1 12.0 99 1016.2 11.4 SSW 22.1 0.0 0.7
13:56 12.1 12.0 99 1016.2 16.8 S 22.1 0.8 0.8
13:57 12.1 12.0 99 1016.1 15.9 SW 22.1 0.8 0.8
13:58 12.1 12.0 99 1016.1 15.9 SW 22.1 0.8 0.8
13:59 12.1 12.0 99 1016.1 16.8 SW 22.1 0.8 0.8
14:00 12.1 12.0 99 1016.0 14.5 SW 20.6 0.8 0.8
14:01 12.1 12.0 99 1015.9 17.4 SW 20.6 0.0 0.8
14:02 12.1 12.0 99 1015.8 19.0 SW 20.6 0.0 0.8
14:03 12.1 12.0 99 1015.9 19.0 SW 20.6 0.0 0.8
14:04 12.1 12.0 99 1015.8 16.8 SW 20.6 0.0 0.8
14:05 12.1 12.0 99 1015.9 19.0 S 20.6 0.0 0.8
14:07 12.1 12.0 99 1016.0 15.9 S 19.0 0.0 0.8
14:08 12.1 12.0 99 1015.9 17.4 SW 19.0 0.0 0.8
14:09 12.1 12.0 99 1015.8 13.6 SSW 19.0 0.0 0.8
14:10 12.1 12.0 99 1016.0 15.2 S 19.0 0.0 0.8
14:11 12.1 12.0 99 1016.0 13.6 SW 19.0 0.0 0.8
14:12 12.1 12.0 99 1015.9 15.9 SW 19.0 0.0 0.8
14:13 12.1 12.0 99 1015.9 19.0 S 19.0 0.0 0.8
14:14 12.1 12.0 99 1015.8 18.3 SW 19.0 0.0 0.8
14:15 12.1 12.0 99 1015.9 15.9 S 19.0 0.0 0.8
14:16 12.1 12.0 99 1015.8 18.3 SW 19.0 0.0 0.8
14:17 12.1 12.0 99 1015.8 15.9 SW 19.0 0.0 0.8
14:18 12.1 12.0 99 1015.9 15.9 S 19.0 0.0 0.8
14:19 12.1 12.0 99 1015.8 18.3 SW 19.0 0.0 0.8
14:20 12.1 12.0 99 1015.9 19.0 S 19.0 0.0 0.8
14:22 12.1 12.0 99 1016.0 20.6 SW 21.3 0.0 0.8
14:23 12.1 12.0 99 1016.0 17.4 S 21.3 0.0 0.8
14:24 12.1 12.0 99 1016.1 17.4 SE 21.3 0.0 0.8
14:25 12.1 12.0 99 1015.9 18.3 S 21.3 0.0 0.8
14:26 12.1 12.0 99 1015.8 15.9 S 21.3 0.0 0.8
14:27 12.1 12.0 99 1015.8 15.9 S 21.3 0.0 0.8
14:28 12.1 12.0 99 1015.8 17.4 S 21.3 0.0 0.8
14:29 12.1 12.0 99 1015.8 17.4 SW 21.3 0.0 0.8
14:30 12.1 12.0 99 1015.8 14.5 SW 21.3 0.0 0.8
14:31 12.1 12.0 99 1015.8 17.4 SW 21.3 0.0 0.8
14:32 12.1 12.0 99 1015.8 15.2 SW 20.6 0.0 0.8
14:33 12.1 12.0 99 1015.8 15.2 SW 18.3 0.0 0.8
14:34 12.1 12.0 99 1016.0 15.9 S 18.3 0.0 0.8
14:35 12.1 12.0 99 1015.9 21.3 SW 21.3 0.0 0.8
14:36 12.1 12.0 99 1015.9 12.1 SW 21.3 0.0 0.8
14:38 12.1 12.0 99 1016.1 22.8 SW 22.8 0.0 0.8
14:39 12.1 12.0 99 1016.0 22.8 SW 22.8 0.0 0.8
14:40 12.1 12.0 99 1016.1 22.1 SSW 22.8 0.0 0.8
14:41 12.1 12.0 99 1016.0 13.0 S 22.8 0.0 0.8
14:42 12.1 12.0 99 1016.0 12.1 S 22.8 0.0 0.8
14:43 12.1 12.0 99 1016.0 12.1 S 22.8 0.0 0.8
14:44 12.1 12.0 99 1016.0 19.7 SW 22.8 0.0 0.8
14:45 12.1 12.0 99 1015.8 17.4 SW 22.8 0.0 0.8
14:46 12.1 12.0 99 1015.9 16.8 SW 22.8 0.0 0.8
14:47 12.1 12.0 99 1016.0 18.3 SW 22.8 0.0 0.8
14:48 12.1 12.0 99 1015.9 16.8 SW 22.8 0.0 0.8
14:49 12.1 12.0 99 1015.7 14.5 SE 22.8 0.0 0.8
14:50 12.1 12.0 99 1015.9 10.7 SE 22.1 0.0 0.8
14:52 12.1 12.0 99 1015.9 16.8 SE 19.7 0.0 0.8
14:53 12.1 12.0 99 1015.7 14.5 S 19.7 0.0 0.8
14:54 12.1 12.0 99 1015.9 16.8 S 18.3 0.0 0.8
14:55 12.1 12.0 99 1015.9 18.3 SW 18.3 0.0 0.8
14:56 12.1 12.0 99 1015.9 13.0 S 18.3 0.0 0.8
14:57 12.1 12.0 99 1015.9 19.7 S 19.7 0.0 0.8
14:58 12.1 12.0 99 1015.9 18.3 SW 19.7 0.0 0.8
14:59 12.1 12.0 99 1015.9 15.2 W 19.7 0.0 0.8
15:00 12.1 12.0 99 1015.9 20.6 S 20.6 0.0 0.8
15:01 12.1 12.0 99 1015.9 15.9 S 20.6 0.0 0.8
15:02 12.1 12.0 99 1015.9 13.6 S 20.6 0.0 0.8
15:03 12.1 12.0 99 1015.8 13.6 S 20.6 0.0 0.8
15:04 12.1 12.0 99 1015.9 19.0 S 20.6 0.0 0.8
15:05 12.1 12.0 99 1015.8 17.4 S 20.6 0.0 0.8
15:06 12.1 12.0 99 1015.8 15.2 S 20.6 0.0 0.8
15:07 12.1 12.0 99 1015.9 16.8 SW 20.6 0.0 0.8
15:08 12.1 12.0 99 1015.8 9.8 SW 20.6 0.0 0.8
15:09 12.1 12.0 99 1015.8 17.4 SW 20.6 0.0 0.8
15:10 12.1 12.0 99 1015.8 14.5 SW 20.6 0.0 0.8
15:11 12.1 12.0 99 1015.8 13.6 S 19.0 0.0 0.8
15:12 12.1 12.0 99 1015.8 14.5 SW 19.0 0.0 0.8
15:13 12.1 12.0 99 1015.8 13.6 SW 19.0 0.0 0.8
15:14 12.1 12.0 99 1015.8 18.3 S 19.0 0.0 0.8
15:15 12.1 12.0 99 1015.8 15.2 SW 18.3 0.0 0.8
15:16 12.1 12.0 99 1015.8 15.9 S 18.3 0.0 0.8
15:17 12.1 12.0 99 1015.8 16.8 S 18.3 0.0 0.8
15:19 12.1 12.0 99 1015.8 21.3 S 21.3 0.0 0.8
15:20 12.1 12.0 99 1015.8 13.6 S 21.3 0.0 0.8
15:21 12.1 12.0 99 1015.8 15.2 SW 21.3 0.0 0.8
15:22 12.1 12.0 99 1015.8 15.9 SW 21.3 0.0 0.8
15:23 12.1 12.0 99 1015.8 14.5 S 21.3 0.0 0.8
15:24 12.1 12.0 99 1015.7 18.3 NNW 21.3 0.0 0.8
15:25 12.1 12.0 99 1015.8 16.8 S 21.3 0.0 0.8
15:26 12.2 12.1 99 1015.7 19.7 S 21.3 0.0 0.8
15:27 12.2 12.1 99 1015.7 15.2 SW 21.3 0.0 0.8
15:28 12.1 12.0 99 1015.8 18.3 SW 21.3 0.0 0.8
15:29 12.2 12.1 99 1015.7 20.6 S 21.3 0.0 0.8
15:30 12.2 12.1 99 1015.8 19.0 S 20.6 0.0 0.8
15:31 12.2 12.1 99 1015.8 20.6 S 20.6 0.0 0.8
15:32 12.2 12.1 99 1015.7 20.6 S 20.6 0.0 0.8
15:34 12.2 12.1 99 1015.8 18.3 WNW 20.6 0.8 0.8
15:35 12.2 12.1 99 1015.9 17.4 SW 20.6 0.8 0.8
15:36 12.2 12.1 99 1015.7 15.9 S 20.6 0.8 0.8
15:37 12.2 12.1 99 1015.9 25.1 S 25.1 0.8 0.8
15:38 12.1 12.0 99 1015.7 20.6 S 25.1 0.8 0.8
15:39 12.2 12.1 99 1015.7 17.4 S 25.1 0.0 0.8
15:40 12.2 12.1 99 1015.7 19.0 S 25.1 0.0 0.8
15:41 12.2 12.1 99 1015.7 15.9 S 25.1 0.0 0.8
15:42 12.2 12.1 99 1015.6 15.9 SW 25.1 0.0 0.8
15:43 12.2 12.1 99 1015.7 13.6 SE 25.1 0.0 0.8
15:44 12.3 12.2 99 1015.8 22.1 SSW 25.1 0.0 0.8
15:45 12.2 12.1 99 1015.7 21.3 S 25.1 0.0 0.8
15:46 12.2 12.1 99 1015.7 18.3 SW 25.1 0.0 0.8
15:47 12.2 12.1 99 1015.7 15.9 SW 25.1 0.0 0.8
15:49 12.2 12.1 99 1015.7 22.1 S 22.1 0.0 0.8
15:50 12.2 12.1 99 1015.8 21.3 S 22.1 0.0 0.8
15:51 12.2 12.1 99 1015.7 15.9 S 22.1 0.0 0.8
15:52 12.2 12.1 99 1015.7 19.0 SSW 22.1 0.0 0.8
15:53 12.2 12.1 99 1015.8 19.0 S 22.1 0.0 0.8
15:54 12.2 12.1 99 1015.8 13.6 S 22.1 0.0 0.8
15:55 12.2 12.1 99 1015.8 13.6 S 22.1 0.0 0.8
15:56 12.3 12.2 99 1015.8 19.0 SW 22.1 0.0 0.8
15:57 12.2 12.1 99 1015.7 14.5 S 22.1 0.0 0.8
15:58 12.2 12.1 99 1015.8 18.3 S 22.1 0.0 0.8
15:59 12.2 12.1 99 1015.7 14.5 SW 22.1 0.0 0.8
16:00 12.2 12.1 99 1015.6 20.6 SW 21.3 0.0 0.8
16:01 12.2 12.1 99 1015.7 20.6 S 21.3 0.0 0.8
16:02 12.2 12.1 99 1015.8 15.9 S 21.3 0.0 0.8
16:03 12.2 12.1 99 1015.7 15.9 S 20.6 0.0 0.8
16:05 12.2 12.1 99 1015.7 19.0 S 20.6 0.0 0.8
16:06 12.0 11.9 99 1015.7 14.5 S 20.6 0.0 0.8
16:07 12.2 12.1 99 1015.7 17.4 S 20.6 0.0 0.8
16:08 12.2 12.1 99 1015.7 16.8 S 20.6 0.0 0.8
16:09 12.2 12.1 99 1015.8 14.5 S 21.3 0.0 0.8
16:10 12.2 12.1 99 1015.8 14.5 S 21.3 0.0 0.8
16:11 12.2 12.1 99 1015.4 20.6 S 24.4 0.8 0.9
16:12 12.2 12.1 99 1015.7 13.0 S 24.4 0.8 0.9
16:13 12.2 12.1 99 1015.6 10.7 SW 24.4 0.8 0.9
16:14 12.2 12.1 99 1015.6 15.9 SW 24.4 0.8 0.9
16:15 12.2 12.1 99 1015.7 18.3 S 24.4 0.8 0.9
16:16 12.2 12.1 99 1015.7 15.2 S 24.4 0.0 0.9
16:17 12.2 12.1 99 1015.6 13.6 SW 24.4 0.0 0.9
16:18 12.2 12.1 99 1015.7 18.3 SW 24.4 0.0 0.9
16:19 12.2 12.1 99 1015.7 14.5 S 24.4 0.0 0.9
16:21 12.2 12.1 99 1015.6 19.0 SW 19.0 0.0 0.9
16:22 12.2 12.1 99 1015.8 19.7 SW 19.7 0.0 0.9
16:23 12.2 12.1 99 1015.8 15.2 SW 19.7 0.0 0.9
16:24 12.2 12.1 99 1015.8 15.9 W 19.7 0.0 0.9
16:25 12.2 12.1 99 1015.7 13.6 SW 19.7 0.0 0.9
16:26 12.2 12.1 99 1015.7 13.6 SW 19.7 0.0 0.9
16:27 12.2 12.1 99 1015.7 13.6 SW 19.7 0.0 0.9
16:28 12.2 12.1 99 1015.8 14.5 SSW 19.7 0.0 0.9
16:29 12.2 12.1 99 1015.9 13.6 S 19.7 0.0 0.9
16:30 12.2 12.1 99 1015.8 14.5 S 19.7 0.0 0.9
16:31 12.2 12.1 99 1015.9 17.4 SW 19.7 0.0 0.9
16:32 12.2 12.1 99 1015.9 16.8 SW 19.7 0.0 0.9
16:33 12.2 12.1 99 1015.8 18.3 SW 18.3 0.0 0.9
16:34 12.2 12.1 99 1015.8 13.6 S 18.3 0.0 0.9
16:35 12.2 12.1 99 1015.9 22.8 S 22.8 0.0 0.9
16:37 12.2 12.1 99 1015.9 17.4 NW 22.8 0.0 0.9
16:38 12.2 12.1 99 1015.7 19.0 SW 22.8 0.0 0.9
16:39 12.2 12.1 99 1015.6 17.4 S 22.8 0.0 0.9
16:40 12.2 12.1 99 1015.8 19.0 SW 22.8 0.0 0.9
16:41 12.2 12.1 99 1015.9 19.0 SSW 22.8 0.8 0.9
16:42 12.2 12.1 99 1015.9 19.0 SSW 22.8 0.8 0.9
16:43 12.2 12.1 99 1015.8 18.3 SW 22.8 0.8 0.9
16:44 12.2 12.1 99 1015.9 17.4 S 22.8 0.8 0.9
16:45 12.2 12.1 99 1015.9 20.6 SW 22.8 0.8 0.9
16:46 12.2 12.1 99 1015.7 19.0 SW 22.8 0.0 0.9
16:47 12.2 12.1 99 1015.8 19.7 S 22.8 0.0 0.9
16:48 12.2 12.1 99 1015.8 19.0 S 20.6 0.0 0.9
16:49 12.2 12.1 99 1015.7 15.2 S 20.6 0.0 0.9
16:50 12.2 12.1 99 1015.8 18.3 S 20.6 0.0 0.9
16:51 12.2 12.1 99 1015.8 14.5 S 20.6 0.0 0.9
16:53 12.2 12.1 99 1015.8 15.9 S 20.6 0.0 0.9
16:54 12.2 12.1 99 1015.7 18.3 WSW 20.6 0.0 0.9
16:55 12.2 12.1 99 1015.6 18.3 SW 19.7 0.0 0.9
16:56 12.2 12.1 99 1015.7 17.4 SW 21.3 0.0 0.9
16:57 12.2 12.1 99 1015.8 15.9 S 21.3 0.0 0.9
16:58 12.2 12.1 99 1015.8 15.9 S 21.3 0.0 0.9
16:59 12.2 12.1 99 1015.7 19.7 SW 21.3 0.0 0.9
17:00 12.2 12.1 99 1015.6 15.9 SW 21.3 0.0 0.9
17:01 12.2 12.1 99 1015.6 17.4 SW 21.3 0.0 0.9
17:02 12.2 12.1 99 1015.4 15.2 SW 21.3 0.0 0.9
17:03 12.2 12.1 99 1015.5 15.2 SW 21.3 0.0 0.9
17:04 12.2 12.1 99 1015.5 17.4 SW 21.3 0.0 0.9
17:05 12.2 12.1 99 1015.5 19.7 S 21.3 0.0 0.9
17:06 12.2 12.1 99 1015.5 19.7 SW 21.3 0.0 0.9
17:07 12.2 12.1 99 1015.6 15.9 S 19.7 0.0 0.9
17:08 12.2 12.1 99 1015.7 17.4 S 19.7 0.0 0.9
17:09 12.2 12.1 99 1015.6 21.3 SW 21.3 0.0 0.9
17:10 12.2 12.1 99 1015.6 16.8 S 21.3 0.0 0.9
17:11 12.2 12.1 99 1015.6 17.4 S 21.3 0.0 0.9
17:12 12.2 12.1 99 1015.6 15.2 S 21.3 0.0 0.9
17:13 12.2 12.1 99 1015.7 18.3 SW 21.3 0.0 0.9
17:14 12.2 12.1 99 1015.7 17.4 S 21.3 0.0 0.9
17:15 12.3 12.2 99 1015.7 15.2 SSE 21.3 0.0 0.9
17:16 12.2 12.1 99 1015.6 14.5 SW 21.3 0.0 0.9
17:17 12.3 12.2 99 1015.8 15.2 SW 21.3 0.0 0.9
17:18 12.3 12.2 99 1015.9 19.0 NE 21.3 0.0 0.9
17:19 12.3 12.2 99 1015.7 19.7 S 21.3 0.0 0.9
17:20 12.3 12.2 99 1015.7 12.1 S 19.7 0.0 0.9
17:21 12.3 12.2 99 1015.8 21.3 S 21.3 0.0 0.9
17:22 12.3 12.2 99 1015.7 19.7 SW 21.3 0.0 0.9
17:23 12.3 12.2 99 1015.7 18.3 S 21.3 0.0 0.9
17:25 12.3 12.2 99 1015.7 16.8 NW 21.3 0.0 0.9
17:26 12.3 12.2 99 1015.8 17.4 S 21.3 0.0 0.9
17:27 12.3 12.2 99 1015.6 16.8 S 21.3 0.0 0.9
17:28 12.3 12.2 99 1015.7 15.2 SW 21.3 0.0 0.9
17:29 12.3 12.2 99 1015.7 23.5 SW 23.5 0.0 0.9
17:30 12.3 12.2 99 1015.8 15.2 SSW 23.5 0.0 0.9
17:31 12.3 12.2 99 1015.7 16.8 S 23.5 0.0 0.9
17:32 12.3 12.2 99 1015.6 15.9 WSW 23.5 0.0 0.9
17:33 12.3 12.2 99 1015.6 15.9 WSW 23.5 0.0 0.9
17:34 12.3 12.2 99 1015.8 18.3 WSW 23.5 0.0 0.9
17:35 12.3 12.2 99 1015.8 20.6 S 23.5 0.0 0.9
17:36 12.3 12.2 99 1015.8 19.0 SE 23.5 0.8 1.0
17:37 12.3 12.2 99 1015.9 15.9 SE 23.5 0.8 1.0
17:38 12.3 12.2 99 1015.9 12.1 S 23.5 0.8 1.0
17:39 12.3 12.2 99 1015.9 16.8 S 23.5 0.8 1.0
17:40 12.3 12.2 99 1015.8 18.3 S 20.6 0.8 1.0
17:41 12.3 12.2 99 1015.9 12.1 S 20.6 0.0 1.0
17:42 12.3 12.2 99 1015.8 15.9 SW 20.6 0.0 1.0
17:43 12.3 12.2 99 1015.9 11.4 S 20.6 0.0 1.0
17:44 12.3 12.2 99 1015.9 19.0 S 20.6 0.0 1.0
17:45 12.3 12.2 99 1015.8 16.8 SW 19.0 0.0 1.0
17:46 12.3 12.2 99 1016.0 19.7 SW 19.7 0.0 1.0
17:47 12.3 12.2 99 1015.8 19.7 SW 19.7 0.0 1.0
17:48 12.3 12.2 99 1015.7 15.9 S 19.7 0.0 1.0
17:50 12.3 12.2 99 1015.7 15.9 SW 19.7 0.0 1.0
17:51 12.3 12.2 99 1015.7 19.0 S 19.7 0.0 1.0
17:52 12.3 12.2 99 1015.6 14.5 SW 19.7 0.0 1.0
17:53 12.3 12.2 99 1015.5 16.8 SW 19.7 0.0 1.0
17:54 12.3 12.2 99 1015.6 19.0 S 19.7 0.0 1.0
17:55 12.3 12.2 99 1015.5 18.3 WSW 19.7 0.0 1.0
17:56 12.3 12.2 99 1015.6 18.3 S 19.7 0.0 1.0
17:57 12.3 12.2 99 1015.6 17.4 SW 19.7 0.0 1.0
17:58 12.3 12.2 99 1015.6 17.4 SW 19.0 0.0 1.0
17:59 12.3 12.2 99 1015.5 13.6 NE 19.0 0.0 1.0
18:00 12.3 12.2 99 1015.5 12.1 SSW 19.0 0.0 1.0
18:01 12.3 12.2 99 1015.6 13.0 S 19.0 0.0 1.0
18:02 12.3 12.2 99 1015.6 13.6 S 19.0 0.0 1.0
18:03 12.3 12.2 99 1015.6 13.6 S 19.0 0.0 1.0
18:04 12.3 12.2 99 1015.5 13.6 S 19.0 0.0 1.0
18:05 12.3 12.2 99 1015.5 13.6 S 18.3 0.0 1.0
18:06 12.3 12.2 99 1015.5 13.6 S 18.3 0.0 1.0
18:07 12.3 12.2 99 1015.5 13.6 S 17.4 0.0 1.0
18:08 12.2 12.1 99 1015.5 15.9 S 16.8 0.0 1.0
18:09 12.3 12.2 99 1015.5 19.7 SSW 19.7 0.0 1.0
18:10 12.3 12.2 99 1015.6 18.3 S 19.7 0.0 1.0
18:11 12.2 12.1 99 1015.4 21.3 S 21.3 0.0 1.0
18:13 12.3 12.2 99 1015.4 18.3 S 22.8 0.0 1.0
18:14 12.2 12.1 99 1015.4 19.0 S 22.8 0.0 1.0
18:15 12.3 12.2 99 1015.4 17.4 S 22.8 0.0 1.0
18:16 12.2 12.1 99 1015.3 16.8 SW 22.8 0.0 1.0
18:17 12.3 12.2 99 1015.3 17.4 SW 22.8 0.0 1.0
18:18 12.2 12.1 99 1015.3 14.5 S 22.8 0.0 1.0
18:19 12.2 12.1 99 1015.4 13.6 S 22.8 0.0 1.0
18:20 12.2 12.1 99 1015.4 18.3 S 22.8 0.0 1.0
18:21 12.3 12.2 99 1015.4 15.9 S 22.8 0.0 1.0
18:22 12.2 12.1 99 1015.5 11.4 SW 22.8 0.0 1.0
18:23 12.2 12.1 99 1015.5 16.8 SW 19.0 0.0 1.0
18:24 12.2 12.1 99 1015.5 15.2 S 19.0 0.0 1.0
18:25 12.2 12.1 99 1015.5 19.0 S 19.0 0.0 1.0
18:26 12.2 12.1 99 1015.3 17.4 SW 19.0 0.0 1.0
18:27 12.2 12.1 99 1015.4 21.3 SW 21.3 0.0 1.0
18:28 12.2 12.1 99 1015.4 20.6 SW 21.3 0.0 1.0
18:29 12.2 12.1 99 1015.5 19.7 SW 21.3 0.0 1.0
18:30 12.2 12.1 99 1015.3 19.0 SW 21.3 0.0 1.0
18:31 12.2 12.1 99 1015.3 16.8 SW 21.3 0.0 1.0
18:32 12.2 12.1 99 1015.3 19.0 SW 21.3 0.0 1.0
18:33 12.2 12.1 99 1015.3 21.3 SW 21.3 0.0 1.0
18:34 12.2 12.1 99 1015.3 22.1 S 22.1 0.0 1.0
18:36 12.2 12.1 99 1015.1 15.9 S 22.1 0.0 1.0
18:37 12.2 12.1 99 1015.1 14.5 S 22.1 0.0 1.0
18:38 12.2 12.1 99 1015.1 20.6 S 22.1 0.0 1.0
18:39 12.3 12.2 99 1015.2 15.2 S 22.1 0.0 1.0
18:40 12.2 12.1 99 1015.2 15.9 SW 22.1 0.0 1.0
18:41 12.2 12.1 99 1015.0 17.4 S 22.1 0.0 1.0
18:42 12.2 12.1 99 1015.2 16.8 S 22.1 0.0 1.0
18:43 12.2 12.1 99 1015.2 15.2 SW 22.1 0.0 1.0
18:44 12.2 12.1 99 1015.1 15.2 SW 22.1 0.0 1.0
18:45 12.2 12.1 99 1015.3 15.2 SW 20.6 0.0 1.0
18:46 12.2 12.1 99 1015.2 16.8 S 20.6 0.0 1.0
18:47 12.2 12.1 99 1015.1 14.5 S 20.6 0.0 1.0
18:48 12.2 12.1 99 1015.2 19.0 WSW 20.6 0.0 1.0
18:49 12.2 12.1 99 1015.0 19.0 SW 19.0 0.0 1.0
18:50 12.2 12.1 99 1015.2 18.3 S 19.0 0.0 1.0
18:51 12.2 12.1 99 1015.0 15.2 SW 19.0 0.0 1.0
18:52 12.2 12.1 99 1015.2 19.0 SSE 19.0 0.0 1.0
18:53 12.2 12.1 99 1015.2 23.5 S 23.5 0.0 1.0
18:54 12.2 12.1 99 1015.1 16.8 SW 23.5 0.8 1.1
18:55 12.3 12.2 99 1015.0 15.2 SW 23.5 0.8 1.1
18:56 12.2 12.1 99 1015.1 19.7 S 23.5 0.8 1.1
18:57 12.2 12.1 99 1015.2 21.3 S 23.5 0.8 1.1
18:58 12.3 12.2 99 1015.2 15.9 S 23.5 0.8 1.1
18:59 12.3 12.2 99 1015.1 18.3 SE 23.5 0.0 1.1
19:01 12.2 12.1 99 1015.0 17.4 SW 23.5 0.0 1.1
19:02 12.2 12.1 99 1015.0 17.4 SW 23.5 0.0 1.1
19:03 12.2 12.1 99 1015.0 17.4 SW 21.3 0.0 1.1
19:04 12.2 12.1 99 1015.1 24.4 SE 24.4 0.0 1.1
19:05 12.2 12.1 99 1015.0 16.8 SW 24.4 0.0 1.1
19:06 12.2 12.1 99 1014.8 13.0 S 24.4 0.0 1.1
19:07 12.2 12.1 99 1014.9 20.6 SE 24.4 0.0 1.1
19:08 12.2 12.1 99 1015.1 19.0 SE 24.4 0.0 1.1
19:09 12.2 12.1 99 1015.0 14.5 SW 24.4 0.0 1.1
19:10 12.3 12.2 99 1015.0 19.7 SSW 24.4 0.0 1.1
19:11 12.2 12.1 99 1015.0 21.3 S 24.4 0.0 1.1
19:12 12.2 12.1 99 1015.1 15.9 SE 24.4 0.0 1.1
19:14 12.2 12.1 99 1015.0 17.4 S 24.4 0.0 1.1
19:15 12.2 12.1 99 1015.1 15.2 S 22.1 0.0 1.1
19:16 12.2 12.1 99 1015.1 18.3 S 25.9 0.0 1.1
19:17 12.2 12.1 99 1015.1 18.3 SW 25.9 0.0 1.1
19:18 12.2 12.1 99 1014.9 16.8 SW 25.9 0.0 1.1
19:19 12.3 12.2 99 1015.1 16.8 S 25.9 0.0 1.1
19:20 12.3 12.2 99 1014.9 13.6 SW 25.9 0.0 1.1
19:21 12.2 12.1 99 1014.8 20.6 S 25.9 0.0 1.1
19:22 12.3 12.2 99 1015.1 18.3 S 25.9 0.0 1.1
19:23 12.3 12.2 99 1015.0 16.8 S 25.9 0.0 1.1
19:24 12.3 12.2 99 1014.9 15.2 SW 25.9 0.0 1.1
19:25 12.3 12.2 99 1014.9 15.9 SE 25.9 0.0 1.1
19:26 12.3 12.2 99 1015.1 16.8 S 25.9 0.0 1.1
19:27 12.3 12.2 99 1015.0 15.2 S 20.6 0.0 1.1
19:28 12.3 12.2 99 1015.1 19.7 S 20.6 0.0 1.1
19:29 12.3 12.2 99 1014.9 20.6 S 20.6 0.0 1.1
19:30 12.2 12.1 99 1015.0 18.3 SW 20.6 0.0 1.1
19:31 12.2 12.1 99 1014.9 17.4 S 20.6 0.0 1.1
19:32 12.3 12.2 99 1015.0 19.7 S 20.6 0.0 1.1
19:33 12.3 12.2 99 1015.0 14.5 S 20.6 0.0 1.1
19:34 12.3 12.2 99 1014.8 13.6 SW 20.6 0.0 1.1
19:35 12.3 12.2 99 1014.7 20.6 SW 20.6 0.0 1.1
19:36 12.2 12.1 99 1014.7 13.0 S 21.3 0.0 1.1
19:37 12.3 12.2 99 1014.7 11.4 S 21.3 0.0 1.1
19:39 12.2 12.1 99 1014.9 22.8 S 22.8 0.0 1.1
19:40 12.2 12.1 99 1014.7 19.0 SW 22.8 0.0 1.1
19:41 12.2 12.1 99 1014.8 16.8 S 22.8 0.0 1.1
19:42 12.2 12.1 99 1014.8 18.3 SW 22.8 0.0 1.1
19:43 12.2 12.1 99 1014.8 15.9 SW 22.8 0.0 1.1
19:44 12.2 12.1 99 1014.7 12.1 S 22.8 0.0 1.1
19:45 12.2 12.1 99 1014.7 12.1 S 22.8 0.0 1.1
19:46 12.2 12.1 99 1014.6 15.2 S 22.8 0.0 1.1
19:47 12.2 12.1 99 1014.7 19.7 S 22.8 0.0 1.1
19:48 12.2 12.1 99 1014.7 17.4 SW 22.8 0.0 1.1
19:49 12.2 12.1 99 1014.6 15.2 S 22.8 0.0 1.1
19:50 12.2 12.1 99 1014.8 18.3 S 19.7 0.0 1.1
19:51 12.2 12.1 99 1014.7 15.9 SW 19.7 0.0 1.1
19:52 12.3 12.2 99 1014.7 13.0 SW 19.7 0.0 1.1
19:53 12.2 12.1 99 1014.5 13.6 S 19.7 0.0 1.1
19:54 12.2 12.1 99 1014.7 18.3 SW 19.7 0.8 1.1
19:55 12.3 12.2 99 1014.5 22.1 S 22.1 0.8 1.1
19:56 12.3 12.2 99 1014.6 13.0 S 22.1 0.8 1.1
19:57 12.3 12.2 99 1014.6 13.0 SW 22.1 0.8 1.1
19:58 12.2 12.1 99 1014.6 15.9 SW 22.1 0.8 1.1
19:59 12.3 12.2 99 1014.6 14.5 S 22.1 0.0 1.1
20:00 12.3 12.2 99 1014.5 15.2 SW 22.1 0.0 1.1
20:01 12.3 12.2 99 1014.6 18.3 SE 22.1 0.0 1.1
20:02 12.3 12.2 99 1014.4 18.3 SE 22.1 0.0 1.1
20:03 12.3 12.2 99 1014.3 18.3 SE 22.1 0.0 1.1
20:04 12.3 12.2 99 1014.5 13.6 SE 22.1 0.0 1.1
20:06 12.2 12.1 99 1014.4 15.2 SW 18.3 0.0 1.1
20:07 12.3 12.2 99 1014.5 16.8 S 18.3 0.0 1.1
20:08 12.3 12.2 99 1014.3 15.2 S 18.3 0.0 1.1
20:09 12.3 12.2 99 1014.5 11.4 S 18.3 0.0 1.1
20:10 12.2 12.1 99 1014.4 14.5 S 18.3 0.0 1.1
20:11 12.3 12.2 99 1014.3 15.9 S 18.3 0.0 1.1
20:12 12.3 12.2 99 1014.4 13.6 S 18.3 0.0 1.1
20:13 12.3 12.2 99 1014.4 12.1 S 18.3 0.0 1.1
20:14 12.3 12.2 99 1014.3 19.7 SW 19.7 0.0 1.1
20:15 12.3 12.2 99 1014.5 15.2 S 19.7 0.0 1.1
20:16 12.3 12.2 99 1014.4 16.8 S 19.7 0.0 1.1
20:17 12.3 12.2 99 1014.3 13.6 SE 19.7 0.0 1.1
20:18 12.3 12.2 99 1014.5 19.0 S 19.7 0.0 1.1
20:19 12.3 12.2 99 1014.4 11.4 SW 19.7 0.0 1.1
20:20 12.3 12.2 99 1014.3 13.6 SE 19.7 0.0 1.1
20:21 12.3 12.2 99 1014.4 14.5 S 19.7 0.0 1.1
20:22 12.3 12.2 99 1014.3 18.3 SW 19.7 0.0 1.1
20:23 12.3 12.2 99 1014.4 13.6 SW 19.7 0.0 1.1
20:24 12.3 12.2 99 1014.3 14.5 S 19.0 0.0 1.1
20:25 12.3 12.2 99 1014.4 12.1 S 19.0 0.0 1.1
20:26 12.3 12.2 99 1014.4 13.6 S 19.0 0.0 1.1
20:27 12.3 12.2 99 1014.3 15.2 S 19.0 0.0 1.1
20:28 12.3 12.2 99 1014.4 14.5 S 18.3 0.0 1.1
20:29 12.2 12.1 99 1014.4 14.5 S 18.3 0.0 1.1
20:30 12.3 12.2 99 1014.5 19.0 S 19.0 0.0 1.1
20:31 12.3 12.2 99 1014.5 16.8 S 19.0 0.0 1.1
20:33 12.3 12.2 99 1014.3 21.3 S 21.3 0.0 1.1
20:34 12.3 12.2 99 1014.3 16.8 SW 21.3 0.0 1.1
20:35 12.3 12.2 99 1014.3 16.8 SW 21.3 0.0 1.1
20:36 12.3 12.2 99 1014.2 18.3 WSW 21.3 0.0 1.1
20:37 12.3 12.2 99 1014.1 18.3 SW 21.3 0.0 1.1
20:38 12.3 12.2 99 1014.1 18.3 SW 21.3 0.0 1.1
20:39 12.3 12.2 99 1014.2 15.2 S 21.3 0.0 1.1
20:40 12.2 12.1 99 1014.3 18.3 S 21.3 0.0 1.1
20:41 12.2 12.1 99 1014.2 15.9 S 21.3 0.0 1.1
20:42 12.2 12.1 99 1013.9 16.8 SE 21.3 0.0 1.1
20:43 12.2 12.1 99 1014.3 21.3 S 22.8 0.0 1.1
20:44 12.3 12.2 99 1014.3 17.4 SSE 22.8 0.0 1.1
20:45 12.3 12.2 99 1014.3 18.3 S 22.8 0.8 1.2
20:46 12.3 12.2 99 1014.2 18.3 S 22.8 0.8 1.2
20:47 12.2 12.1 99 1014.2 13.0 S 22.8 0.8 1.2
20:48 12.2 12.1 99 1014.3 13.0 SW 22.8 0.8 1.2
20:49 12.2 12.1 99 1014.2 17.4 S 22.8 0.8 1.2
20:50 12.2 12.1 99 1014.0 15.2 S 22.8 0.0 1.2
20:51 12.2 12.1 99 1014.1 22.8 SW 22.8 0.0 1.2
20:52 12.2 12.1 99 1014.1 21.3 S 22.8 0.0 1.2
20:53 12.2 12.1 99 1014.0 15.9 S 22.8 0.0 1.2
20:54 12.2 12.1 99 1014.2 22.1 S 22.8 0.0 1.2
20:55 12.2 12.1 99 1014.1 22.8 SW 22.8 0.0 1.2
20:56 12.2 12.1 99 1014.1 11.4 SE 22.8 0.8 1.3
20:58 12.2 12.1 99 1013.9 20.6 SSW 22.8 0.8 1.3
20:59 12.2 12.1 99 1013.9 19.7 S 22.8 0.8 1.3
21:00 12.2 12.1 99 1014.0 19.0 S 22.8 0.8 1.3
21:01 12.2 12.1 99 1014.1 21.3 S 22.8 0.0 1.3
21:02 12.2 12.1 99 1014.0 21.3 S 22.8 0.0 1.3
21:03 12.2 12.1 99 1014.1 21.3 S 22.8 0.0 1.3
21:04 12.2 12.1 99 1014.0 19.7 SE 22.8 0.0 1.3
21:05 12.2 12.1 99 1013.9 15.2 S 22.8 0.0 1.3
21:06 12.2 12.1 99 1014.0 15.9 S 21.3 0.0 1.3
21:07 12.2 12.1 99 1013.8 22.1 S 22.1 0.0 1.3
21:08 12.2 12.1 99 1013.9 25.1 SW 25.1 0.8 1.3
21:09 12.2 12.1 99 1013.8 19.7 SE 25.1 0.8 1.3
21:10 12.2 12.1 99 1014.0 14.5 S 25.1 0.8 1.3
21:11 12.2 12.1 99 1013.9 14.5 S 25.1 0.8 1.3
21:12 12.2 12.1 99 1013.9 17.4 S 25.1 0.8 1.3
21:13 12.2 12.1 99 1013.9 25.9 S 25.9 0.0 1.3
21:14 12.2 12.1 99 1013.9 21.3 S 25.9 0.0 1.3
21:16 12.2 12.1 99 1013.8 15.9 S 25.9 0.0 1.3
21:17 12.2 12.1 99 1013.8 15.9 SW 25.9 0.0 1.3
21:18 12.2 12.1 99 1013.8 25.1 S 25.9 0.0 1.3
21:19 12.2 12.1 99 1013.8 19.0 S 25.9 0.0 1.3
21:20 12.2 12.1 99 1013.7 19.0 S 25.9 0.0 1.3
21:21 12.2 12.1 99 1013.7 19.0 S 25.9 0.0 1.3
21:22 12.2 12.1 99 1013.8 15.9 S 25.9 0.0 1.3
21:23 12.2 12.1 99 1013.8 20.6 S 25.9 0.0 1.3
21:24 12.2 12.1 99 1013.8 14.5 SW 25.1 0.0 1.3
21:25 12.2 12.1 99 1013.8 20.6 S 25.1 0.8 1.4
21:26 12.2 12.1 99 1013.7 17.4 SE 25.1 0.8 1.4
21:27 12.2 12.1 99 1013.9 24.4 S 25.1 0.8 1.4
21:28 12.2 12.1 99 1013.9 15.2 S 25.1 0.8 1.4
21:29 12.2 12.1 99 1013.8 17.4 S 24.4 0.8 1.4
21:30 12.2 12.1 99 1013.8 15.2 SE 24.4 0.0 1.4
21:31 12.2 12.1 99 1013.7 22.1 S 24.4 0.0 1.4
21:32 12.2 12.1 99 1013.8 23.5 SW 24.4 0.8 1.4
21:33 12.2 12.1 99 1013.6 19.0 WNW 24.4 0.8 1.4
21:34 12.2 12.1 99 1013.5 15.9 SE 24.4 0.8 1.4
21:35 12.2 12.1 99 1013.5 15.9 SE 24.4 0.8 1.4
21:36 12.2 12.1 99 1013.6 19.0 SW 24.4 0.8 1.4
21:37 12.2 12.1 99 1013.7 22.1 S 24.4 0.0 1.4
21:38 12.2 12.1 99 1013.6 19.0 SW 24.4 0.0 1.4
21:39 12.2 12.1 99 1013.4 19.0 SE 24.4 0.0 1.4
21:40 12.2 12.1 99 1013.6 19.0 SE 24.4 0.0 1.4
21:41 12.2 12.1 99 1013.6 18.3 S 23.5 0.0 1.4
21:42 12.2 12.1 99 1013.5 15.9 S 22.1 0.0 1.4
21:43 12.2 12.1 99 1013.5 16.8 S 22.1 0.0 1.4
21:44 12.2 12.1 99 1013.4 19.7 S 22.1 0.0 1.5
21:45 12.2 12.1 99 1013.4 22.8 S 22.8 0.8 1.5
21:47 12.2 12.1 99 1013.4 22.1 S 22.8 0.8 1.5
21:48 12.2 12.1 99 1013.3 22.8 SE 22.8 0.8 1.5
21:49 12.2 12.1 99 1013.4 23.5 S 23.5 0.8 1.5
21:50 12.2 12.1 99 1013.3 24.4 S 24.4 0.0 1.5
21:51 12.2 12.1 99 1013.2 14.5 S 24.4 0.0 1.5
21:52 12.2 12.1 99 1013.3 17.4 S 24.4 0.0 1.5
21:53 12.2 12.1 99 1013.2 21.3 S 24.4 0.0 1.5
21:54 12.2 12.1 99 1013.3 15.2 S 24.4 0.0 1.5
21:55 12.2 12.1 99 1013.3 15.2 S 24.4 0.0 1.5
21:56 12.2 12.1 99 1013.2 18.3 S 24.4 0.0 1.5
21:57 12.2 12.1 99 1013.1 15.9 S 24.4 0.0 1.5
21:58 12.2 12.1 99 1013.2 19.0 S 24.4 0.0 1.5
21:59 12.2 12.1 99 1013.1 20.6 S 24.4 0.0 1.5
22:00 12.2 12.1 99 1013.0 18.3 SE 24.4 0.0 1.5
22:01 12.2 12.1 99 1013.1 15.9 S 22.8 0.0 1.5
22:02 12.2 12.1 99 1012.9 21.3 S 22.8 0.0 1.5
22:03 12.2 12.1 99 1013.2 21.3 S 22.8 0.0 1.5
22:04 12.2 12.1 99 1013.1 18.3 S 22.8 0.0 1.5
22:06 12.2 12.1 99 1012.9 18.3 S 22.8 0.0 1.5
22:07 12.2 12.1 99 1012.8 19.0 SW 22.8 0.0 1.5
22:08 12.2 12.1 99 1012.8 20.6 NNE 22.8 0.0 1.5
22:09 12.2 12.1 99 1012.7 19.7 S 21.3 0.0 1.5
22:10 12.2 12.1 99 1012.9 18.3 S 21.3 0.0 1.5
22:11 12.2 12.1 99 1012.8 15.9 S 21.3 0.0 1.5
22:13 12.2 12.1 99 1012.9 22.8 S 22.8 0.0 1.5
22:14 12.2 12.1 99 1012.8 18.3 S 22.8 0.0 1.5
22:15 12.2 12.1 99 1012.7 18.3 S 22.8 0.0 1.5
22:16 12.2 12.1 99 1012.8 15.2 S 22.8 0.0 1.5
22:17 12.2 12.1 99 1012.8 22.1 S 22.8 0.0 1.5
22:18 12.2 12.1 99 1012.8 14.5 S 22.8 0.0 1.5
22:19 12.2 12.1 99 1012.7 19.7 S 22.8 0.0 1.5
22:20 12.2 12.1 99 1012.7 20.6 S 22.8 0.0 1.5
22:21 12.2 12.1 99 1012.6 24.4 NW 24.4 0.0 1.5
22:22 12.2 12.1 99 1012.6 19.0 SE 24.4 0.0 1.5
22:23 12.2 12.1 99 1012.5 18.3 S 24.4 0.0 1.5
22:24 12.2 12.1 99 1012.5 18.3 SE 24.4 0.0 1.5
22:25 12.2 12.1 99 1012.6 17.4 E 24.4 0.0 1.5
22:26 12.2 12.1 99 1012.6 19.7 S 24.4 0.0 1.5
22:27 12.2 12.1 99 1012.6 16.8 SE 24.4 0.0 1.5
22:28 12.2 12.1 99 1012.6 16.8 SE 24.4 0.0 1.5
22:29 12.2 12.1 99 1012.6 18.3 S 24.4 0.0 1.5
22:30 12.2 12.1 99 1012.5 18.3 S 24.4 0.0 1.5
22:31 12.1 12.0 99 1012.4 19.7 S 24.4 0.0 1.5
22:32 12.2 12.1 99 1012.4 21.3 S 21.3 0.0 1.5
22:33 12.2 12.1 99 1012.5 20.6 SE 21.3 0.0 1.5
22:34 12.2 12.1 99 1012.5 15.9 E 21.3 0.0 1.5
22:35 12.2 12.1 99 1012.7 21.3 S 21.3 0.0 1.5
22:36 12.2 12.1 99 1012.3 20.6 S 21.3 0.0 1.5
22:38 12.2 12.1 99 1012.5 19.0 SE 22.8 0.0 1.5
22:39 12.2 12.1 99 1012.4 20.6 SE 22.8 0.0 1.5
22:40 12.2 12.1 99 1012.5 22.8 S 22.8 0.0 1.5
22:41 12.2 12.1 99 1012.3 22.1 S 22.8 0.0 1.5
22:42 12.2 12.1 99 1012.2 13.0 SE 22.8 0.0 1.5
22:43 12.2 12.1 99 1012.4 12.1 SE 22.8 0.0 1.5
22:44 12.2 12.1 99 1012.5 17.4 SE 22.8 0.0 1.5
22:45 12.2 12.1 99 1012.3 17.4 S 22.8 0.0 1.5
22:46 12.2 12.1 99 1012.1 20.6 S 22.8 0.0 1.5
22:47 12.2 12.1 99 1012.3 21.3 S 22.8 0.0 1.5
22:48 12.2 12.1 99 1012.3 16.8 S 22.8 0.0 1.5
22:49 12.2 12.1 99 1012.2 16.8 SSW 22.8 0.0 1.5
22:50 12.1 12.0 99 1012.1 20.6 S 22.8 0.0 1.5
22:51 12.2 12.1 99 1012.3 19.0 SW 22.8 0.0 1.5
22:52 12.2 12.1 99 1012.0 24.4 S 24.4 0.0 1.5
22:53 12.2 12.1 99 1012.2 17.4 SW 24.4 0.0 1.5
22:54 12.2 12.1 99 1012.0 16.8 SW 24.4 0.0 1.5
22:55 12.2 12.1 99 1012.0 16.8 SW 24.4 0.0 1.5
22:56 12.2 12.1 99 1012.2 21.3 SW 24.4 0.0 1.5
22:57 12.2 12.1 99 1012.0 18.3 SW 24.4 0.8 1.6
22:58 12.2 12.1 99 1012.1 24.4 SW 24.4 0.8 1.6
22:59 12.2 12.1 99 1012.0 21.3 S 24.4 0.8 1.6
23:00 12.2 12.1 99 1012.2 25.9 S 25.9 0.8 1.6
23:01 12.2 12.1 99 1012.1 22.8 SW 25.9 0.8 1.6
23:02 12.2 12.1 99 1012.0 22.1 S 25.9 0.0 1.6
23:03 12.2 12.1 99 1012.0 22.1 S 25.9 0.0 1.6
23:04 12.2 12.1 99 1012.1 22.1 S 25.9 0.0 1.6
23:06 12.2 12.1 99 1012.1 27.3 S 27.3 0.0 1.6
23:07 12.2 12.1 99 1012.1 24.4 SE 27.3 0.0 1.6
23:08 12.2 12.1 99 1012.1 26.6 S 27.3 0.0 1.6
23:09 12.2 12.1 99 1012.0 28.2 SE 28.2 0.0 1.6
23:10 12.2 12.1 99 1011.9 20.6 S 28.2 0.0 1.6
23:11 12.2 12.1 99 1011.9 25.1 SW 28.2 0.0 1.6
23:12 12.2 12.1 99 1012.1 23.5 S 28.2 0.0 1.6
23:13 12.2 12.1 99 1011.9 23.5 SSW 28.2 0.0 1.6
23:14 12.2 12.1 99 1011.8 23.5 S 28.2 0.0 1.6
23:15 12.2 12.1 99 1011.8 22.8 S 28.2 0.0 1.6
23:16 12.2 12.1 99 1011.8 22.8 S 28.2 0.0 1.6
23:17 12.2 12.1 99 1011.8 25.9 S 28.2 0.0 1.6
23:18 12.2 12.1 99 1011.8 25.9 S 28.2 0.0 1.6
23:19 12.2 12.1 99 1011.8 20.6 SW 28.2 0.0 1.6
23:20 12.2 12.1 99 1011.8 27.3 SE 27.3 0.0 1.6
23:21 12.2 12.1 99 1011.8 22.8 E 27.3 0.0 1.6
23:22 12.2 12.1 99 1011.8 25.1 S 27.3 0.0 1.6
23:24 12.2 12.1 99 1011.8 22.1 SW 28.2 0.0 1.6
23:25 12.2 12.1 99 1011.9 25.9 S 28.2 0.0 1.6
23:26 12.2 12.1 99 1011.8 24.4 SW 28.2 0.0 1.6
23:27 12.2 12.1 99 1011.6 20.6 SW 28.2 0.0 1.6
23:28 12.2 12.1 99 1011.8 17.4 S 28.2 0.0 1.6
23:29 12.2 12.1 99 1011.8 22.8 SE 28.2 0.0 1.6
23:30 12.2 12.1 99 1011.8 20.6 WSW 28.2 0.0 1.6
23:31 12.2 12.1 99 1011.8 27.3 S 28.2 0.0 1.6
23:32 12.2 12.1 99 1011.8 23.5 SE 28.2 0.0 1.6
23:33 12.2 12.1 99 1011.9 22.8 SW 27.3 0.0 1.6
23:34 12.2 12.1 99 1011.6 18.3 SE 27.3 0.0 1.6
23:35 12.2 12.1 99 1011.8 24.4 SSW 27.3 0.0 1.6
23:36 12.2 12.1 99 1011.9 22.8 SW 27.3 0.8 1.6
23:37 12.2 12.1 99 1011.8 19.7 S 27.3 0.8 1.6
23:38 12.2 12.1 99 1011.7 25.1 SW 27.3 0.8 1.6
23:39 12.2 12.1 99 1011.7 25.1 SW 27.3 0.8 1.6
23:40 12.2 12.1 99 1011.8 25.9 S 31.1 0.8 1.6
23:41 12.2 12.1 99 1011.8 18.3 S 31.1 0.0 1.6
23:42 12.2 12.1 99 1011.8 27.3 S 31.1 0.0 1.6
23:43 12.3 12.2 99 1011.8 23.5 S 31.1 0.0 1.6
23:44 12.2 12.1 99 1011.7 31.1 WNW 31.1 0.0 1.6
23:45 12.2 12.1 99 1011.6 22.1 S 31.1 0.0 1.6
23:46 12.2 12.1 99 1011.7 26.6 S 31.1 0.0 1.6
23:47 12.2 12.1 99 1011.7 24.4 S 31.1 0.0 1.6
23:48 12.2 12.1 99 1011.7 27.3 SW 31.1 0.0 1.6
23:50 12.2 12.1 99 1011.5 23.5 SW 31.1 0.0 1.6
23:51 12.2 12.1 99 1011.6 20.6 SW 31.1 0.0 1.6
23:52 12.2 12.1 99 1011.6 27.3 S 31.1 0.0 1.6
23:53 12.2 12.1 99 1011.4 28.9 SW 31.1 0.0 1.6
23:54 12.2 12.1 99 1011.5 27.3 S 31.1 0.0 1.6
23:55 12.2 12.1 99 1011.5 22.8 SW 28.9 0.0 1.6
23:56 12.2 12.1 99 1011.5 22.1 S 28.9 0.0 1.6
23:57 12.1 12.0 99 1011.5 25.1 SSE 28.9 0.0 1.6
23:58 12.1 12.0 99 1011.3 25.1 S 28.9 0.0 1.6
23:59 12.2 12.1 99 1011.4 22.1 SE 28.9 0.0 1.6

UK - WEATHER STATION TOPSITES - UK World Weather Websites

This is a private weather station, never base important decisions or events on data from this weather station. Although every effort has been made to make the data as accurate as possible it does not meet MetOffice standards. It is proved as a guide of local weather conditions. We accept no liability for any loss which may arise from use of the data.

Copyright © Carnkie Weather 2009 - 2018.